Time,TemperatureF,DewpointF,PressureIn,WindDirection,WindDirectionDegrees,WindSpeedMPH,WindSpeedGustMPH,Humidity,HourlyPrecipIn,Conditions,Clouds,dailyrainin,SoftwareType,DateUTC
2013-08-28 00:00:00,79.1,74.5,29.97,WNW,284,1.0,1.0,86,0.00,,,0.00,Wunderground v.1.15,2013-08-28 04:00:00,
2013-08-28 00:01:00,79.1,74.5,29.97,SW,220,1.0,3.0,86,0.00,,,0.00,Wunderground v.1.15,2013-08-28 04:01:00,
2013-08-28 00:03:00,79.1,74.5,29.97,West,267,1.0,3.0,86,0.00,,,0.00,Wunderground v.1.15,2013-08-28 04:03:00,
2013-08-28 00:05:00,79.1,74.5,29.97,WNW,298,1.0,3.0,86,0.00,,,0.00,Wunderground v.1.15,2013-08-28 04:05:00,
2013-08-28 00:06:00,79.1,74.5,29.97,West,270,1.0,3.0,86,0.00,,,0.00,Wunderground v.1.15,2013-08-28 04:06:00,
2013-08-28 00:08:00,79.1,74.5,29.97,South,182,1.0,3.0,86,0.00,,,0.00,Wunderground v.1.15,2013-08-28 04:08:00,
2013-08-28 00:11:00,79.0,74.5,29.97,WNW,287,1.0,3.0,86,0.00,,,0.00,Wunderground v.1.15,2013-08-28 04:11:00,
2013-08-28 00:12:00,79.0,74.5,29.97,WNW,289,1.0,3.0,86,0.00,,,0.00,Wunderground v.1.15,2013-08-28 04:12:00,
2013-08-28 00:13:00,79.0,74.8,29.97,NW,311,1.0,3.0,87,0.00,,,0.00,Wunderground v.1.15,2013-08-28 04:13:00,
2013-08-28 00:15:00,79.0,74.8,29.97,SW,232,1.0,3.0,87,0.00,,,0.00,Wunderground v.1.15,2013-08-28 04:15:00,
2013-08-28 00:16:00,79.0,74.8,29.97,SW,234,1.0,3.0,87,0.00,,,0.00,Wunderground v.1.15,2013-08-28 04:16:00,
2013-08-28 00:17:00,79.0,74.8,29.97,WNW,292,1.0,3.0,87,0.00,,,0.00,Wunderground v.1.15,2013-08-28 04:17:00,
2013-08-28 00:19:00,79.0,74.8,29.97,West,265,1.0,3.0,87,0.00,,,0.00,Wunderground v.1.15,2013-08-28 04:19:00,
2013-08-28 00:21:00,79.0,74.8,29.97,SW,230,1.0,2.0,87,0.00,,,0.00,Wunderground v.1.15,2013-08-28 04:21:00,
2013-08-28 00:24:00,78.8,74.6,29.97,NW,304,1.0,2.0,87,0.00,,,0.00,Wunderground v.1.15,2013-08-28 04:24:00,
2013-08-28 00:25:00,78.8,74.6,29.97,WNW,301,1.0,2.0,87,0.00,,,0.00,Wunderground v.1.15,2013-08-28 04:25:00,
2013-08-28 00:27:00,78.8,74.9,29.97,West,280,1.0,2.0,88,0.00,,,0.00,Wunderground v.1.15,2013-08-28 04:27:00,
2013-08-28 00:29:00,78.8,74.9,29.97,NW,311,1.0,2.0,88,0.00,,,0.00,Wunderground v.1.15,2013-08-28 04:29:00,
2013-08-28 00:30:00,78.8,74.9,29.97,WNW,285,1.0,2.0,88,0.00,,,0.00,Wunderground v.1.15,2013-08-28 04:30:00,
2013-08-28 00:34:00,78.8,74.9,29.97,SW,224,1.0,2.0,88,0.00,,,0.00,Wunderground v.1.15,2013-08-28 04:34:00,
2013-08-28 00:35:00,78.8,74.9,29.97,SW,224,1.0,2.0,88,0.00,,,0.00,Wunderground v.1.15,2013-08-28 04:35:00,
2013-08-28 00:36:00,78.6,74.7,29.97,SW,223,1.0,2.0,88,0.00,,,0.00,Wunderground v.1.15,2013-08-28 04:36:00,
2013-08-28 00:38:00,78.6,74.7,29.97,WSW,246,1.0,2.0,88,0.00,,,0.00,Wunderground v.1.15,2013-08-28 04:38:00,
2013-08-28 00:40:00,78.6,74.7,29.97,WSW,248,1.0,1.0,88,0.00,,,0.00,Wunderground v.1.15,2013-08-28 04:40:00,
2013-08-28 00:42:00,78.6,74.7,29.97,WNW,301,1.0,1.0,88,0.00,,,0.00,Wunderground v.1.15,2013-08-28 04:42:00,
2013-08-28 00:46:00,78.6,74.7,29.96,WSW,257,0.0,1.0,88,0.00,,,0.00,Wunderground v.1.15,2013-08-28 04:46:00,
2013-08-28 00:47:00,78.4,74.5,29.96,WNW,282,0.0,1.0,88,0.00,,,0.00,Wunderground v.1.15,2013-08-28 04:47:00,
2013-08-28 00:48:00,78.4,74.5,29.96,WSW,258,0.0,1.0,88,0.00,,,0.00,Wunderground v.1.15,2013-08-28 04:48:00,
2013-08-28 00:51:00,78.4,74.5,29.96,West,271,1.0,4.0,88,0.00,,,0.00,Wunderground v.1.15,2013-08-28 04:51:00,
2013-08-28 00:54:00,78.4,74.5,29.96,WSW,248,2.0,4.0,88,0.00,,,0.00,Wunderground v.1.15,2013-08-28 04:54:00,
2013-08-28 00:56:00,78.4,74.5,29.96,WSW,256,2.0,4.0,88,0.00,,,0.00,Wunderground v.1.15,2013-08-28 04:56:00,
2013-08-28 00:57:00,78.4,74.5,29.96,WSW,239,2.0,4.0,88,0.00,,,0.00,Wunderground v.1.15,2013-08-28 04:57:00,
2013-08-28 01:00:00,78.4,74.5,29.96,West,274,1.0,2.0,88,0.00,,,0.00,Wunderground v.1.15,2013-08-28 05:00:00,
2013-08-28 01:03:00,78.2,74.4,29.96,WSW,246,1.0,2.0,88,0.00,,,0.00,Wunderground v.1.15,2013-08-28 05:03:00,
2013-08-28 01:05:00,78.2,74.4,29.96,WSW,246,1.0,2.0,88,0.00,,,0.00,Wunderground v.1.15,2013-08-28 05:05:00,
2013-08-28 01:08:00,78.2,74.4,29.96,SW,236,1.0,3.0,88,0.00,,,0.00,Wunderground v.1.15,2013-08-28 05:08:00,
2013-08-28 01:10:00,78.2,74.4,29.96,West,264,0.0,0.0,88,0.00,,,0.00,Wunderground v.1.15,2013-08-28 05:10:00,
2013-08-28 01:11:00,78.2,74.7,29.96,SSW,210,0.0,3.0,89,0.00,,,0.00,Wunderground v.1.15,2013-08-28 05:11:00,
2013-08-28 01:14:00,78.1,74.6,29.96,WNW,282,0.0,3.0,89,0.00,,,0.00,Wunderground v.1.15,2013-08-28 05:14:00,
2013-08-28 01:15:00,78.1,74.6,29.96,West,281,0.0,3.0,89,0.00,,,0.00,Wunderground v.1.15,2013-08-28 05:15:00,
2013-08-28 01:18:00,78.1,74.6,29.96,WNW,302,1.0,3.0,89,0.00,,,0.00,Wunderground v.1.15,2013-08-28 05:18:00,
2013-08-28 01:19:00,78.1,74.6,29.96,West,261,0.0,3.0,89,0.00,,,0.00,Wunderground v.1.15,2013-08-28 05:19:00,
2013-08-28 01:21:00,78.1,74.6,29.96,WSW,240,1.0,1.0,89,0.00,,,0.00,Wunderground v.1.15,2013-08-28 05:21:00,
2013-08-28 01:23:00,77.9,74.4,29.96,WSW,247,0.0,1.0,89,0.00,,,0.00,Wunderground v.1.15,2013-08-28 05:23:00,
2013-08-28 01:24:00,77.9,74.4,29.96,WSW,248,0.0,1.0,89,0.00,,,0.00,Wunderground v.1.15,2013-08-28 05:24:00,
2013-08-28 01:26:00,77.9,74.4,29.96,WSW,248,0.0,1.0,89,0.00,,,0.00,Wunderground v.1.15,2013-08-28 05:26:00,
2013-08-28 01:28:00,77.9,74.4,29.96,West,263,0.0,1.0,89,0.00,,,0.00,Wunderground v.1.15,2013-08-28 05:28:00,
2013-08-28 01:31:00,77.9,74.4,29.96,SSW,192,1.0,6.0,89,0.00,,,0.00,Wunderground v.1.15,2013-08-28 05:31:00,
2013-08-28 01:32:00,77.9,74.4,29.96,SSW,213,1.0,6.0,89,0.00,,,0.00,Wunderground v.1.15,2013-08-28 05:32:00,
2013-08-28 01:35:00,77.9,74.4,29.96,SSW,203,2.0,6.0,89,0.00,,,0.00,Wunderground v.1.15,2013-08-28 05:35:00,
2013-08-28 01:37:00,77.9,74.4,29.96,WNW,287,2.0,6.0,89,0.00,,,0.00,Wunderground v.1.15,2013-08-28 05:37:00,
2013-08-28 01:38:00,77.9,74.4,29.96,WNW,287,2.0,6.0,89,0.00,,,0.00,Wunderground v.1.15,2013-08-28 05:38:00,
2013-08-28 01:39:00,77.9,74.4,29.96,SW,232,2.0,6.0,89,0.00,,,0.00,Wunderground v.1.15,2013-08-28 05:39:00,
2013-08-28 01:40:00,77.9,74.4,29.96,SW,229,2.0,2.0,89,0.00,,,0.00,Wunderground v.1.15,2013-08-28 05:40:00,
2013-08-28 01:42:00,77.9,74.4,29.96,WSW,247,2.0,2.0,89,0.00,,,0.00,Wunderground v.1.15,2013-08-28 05:42:00,
2013-08-28 01:44:00,77.9,74.4,29.96,SW,227,1.0,2.0,89,0.00,,,0.00,Wunderground v.1.15,2013-08-28 05:44:00,
2013-08-28 01:45:00,77.9,74.4,29.96,SW,227,1.0,2.0,89,0.00,,,0.00,Wunderground v.1.15,2013-08-28 05:45:00,
2013-08-28 01:46:00,77.9,74.4,29.96,WSW,241,1.0,2.0,89,0.00,,,0.00,Wunderground v.1.15,2013-08-28 05:46:00,
2013-08-28 01:47:00,77.9,74.4,29.96,WNW,294,1.0,2.0,89,0.00,,,0.00,Wunderground v.1.15,2013-08-28 05:47:00,
2013-08-28 01:48:00,77.7,74.2,29.96,WSW,241,1.0,5.0,89,0.00,,,0.00,Wunderground v.1.15,2013-08-28 05:48:00,
2013-08-28 01:50:00,77.7,74.2,29.96,WSW,253,1.0,1.0,89,0.00,,,0.00,Wunderground v.1.15,2013-08-28 05:50:00,
2013-08-28 01:52:00,77.7,74.2,29.96,WSW,250,1.0,1.0,89,0.00,,,0.00,Wunderground v.1.15,2013-08-28 05:52:00,
2013-08-28 01:55:00,77.7,74.2,29.96,NW,323,1.0,3.0,89,0.00,,,0.00,Wunderground v.1.15,2013-08-28 05:55:00,
2013-08-28 01:56:00,77.7,74.2,29.96,SSW,206,1.0,5.0,89,0.00,,,0.00,Wunderground v.1.15,2013-08-28 05:56:00,
2013-08-28 01:57:00,77.7,74.2,29.96,WSW,250,2.0,5.0,89,0.00,,,0.00,Wunderground v.1.15,2013-08-28 05:57:00,
2013-08-28 01:58:00,77.7,74.2,29.96,SSW,195,2.0,5.0,89,0.00,,,0.00,Wunderground v.1.15,2013-08-28 05:58:00,
2013-08-28 01:59:00,77.7,74.2,29.96,SW,216,1.0,5.0,89,0.00,,,0.00,Wunderground v.1.15,2013-08-28 05:59:00,
2013-08-28 02:00:00,77.7,74.2,29.95,SSW,206,1.0,2.0,89,0.00,,,0.00,Wunderground v.1.15,2013-08-28 06:00:00,
2013-08-28 02:02:00,77.7,74.2,29.95,SSW,205,2.0,6.0,89,0.00,,,0.00,Wunderground v.1.15,2013-08-28 06:02:00,
2013-08-28 02:04:00,77.7,74.2,29.95,WSW,246,2.0,6.0,89,0.00,,,0.00,Wunderground v.1.15,2013-08-28 06:04:00,
2013-08-28 02:05:00,77.7,74.2,29.95,WSW,246,2.0,6.0,89,0.00,,,0.00,Wunderground v.1.15,2013-08-28 06:05:00,
2013-08-28 02:09:00,77.7,74.2,29.95,SW,234,1.0,6.0,89,0.00,,,0.00,Wunderground v.1.15,2013-08-28 06:09:00,
2013-08-28 02:10:00,77.7,74.2,29.95,WSW,246,1.0,1.0,89,0.00,,,0.00,Wunderground v.1.15,2013-08-28 06:10:00,
2013-08-28 02:11:00,77.7,74.2,29.95,WSW,250,1.0,1.0,89,0.00,,,0.00,Wunderground v.1.15,2013-08-28 06:11:00,
2013-08-28 02:12:00,77.5,74.0,29.95,WSW,248,1.0,1.0,89,0.00,,,0.00,Wunderground v.1.15,2013-08-28 06:12:00,
2013-08-28 02:15:00,77.5,74.0,29.94,SW,230,1.0,5.0,89,0.00,,,0.00,Wunderground v.1.15,2013-08-28 06:15:00,
2013-08-28 02:16:00,77.5,74.0,29.94,WSW,240,1.0,5.0,89,0.00,,,0.00,Wunderground v.1.15,2013-08-28 06:16:00,
2013-08-28 02:18:00,77.5,74.0,29.94,WSW,243,1.0,5.0,89,0.00,,,0.00,Wunderground v.1.15,2013-08-28 06:18:00,
2013-08-28 02:20:00,77.5,74.0,29.94,NW,326,1.0,1.0,89,0.00,,,0.00,Wunderground v.1.15,2013-08-28 06:20:00,
2013-08-28 02:21:00,77.5,74.0,29.94,WNW,285,1.0,1.0,89,0.00,,,0.00,Wunderground v.1.15,2013-08-28 06:21:00,
2013-08-28 02:23:00,77.5,74.0,29.94,SSW,205,1.0,5.0,89,0.00,,,0.00,Wunderground v.1.15,2013-08-28 06:23:00,
2013-08-28 02:24:00,77.5,74.0,29.94,SW,216,1.0,5.0,89,0.00,,,0.00,Wunderground v.1.15,2013-08-28 06:24:00,
2013-08-28 02:25:00,77.5,74.0,29.94,SSW,213,1.0,5.0,89,0.00,,,0.00,Wunderground v.1.15,2013-08-28 06:25:00,
2013-08-28 02:26:00,77.5,74.0,29.94,West,280,1.0,5.0,89,0.00,,,0.00,Wunderground v.1.15,2013-08-28 06:26:00,
2013-08-28 02:27:00,77.5,74.0,29.94,SSW,212,1.0,5.0,89,0.00,,,0.00,Wunderground v.1.15,2013-08-28 06:27:00,
2013-08-28 02:29:00,77.3,73.8,29.94,SSW,208,1.0,5.0,89,0.00,,,0.00,Wunderground v.1.15,2013-08-28 06:29:00,
2013-08-28 02:30:00,77.3,73.8,29.94,SSW,209,1.0,2.0,89,0.00,,,0.00,Wunderground v.1.15,2013-08-28 06:30:00,
2013-08-28 02:32:00,77.3,73.8,29.94,SW,217,2.0,3.0,89,0.00,,,0.00,Wunderground v.1.15,2013-08-28 06:32:00,
2013-08-28 02:35:00,77.3,73.8,29.94,West,271,1.0,3.0,89,0.00,,,0.00,Wunderground v.1.15,2013-08-28 06:35:00,
2013-08-28 02:37:00,77.3,73.8,29.94,WNW,296,1.0,3.0,89,0.00,,,0.00,Wunderground v.1.15,2013-08-28 06:37:00,
2013-08-28 02:40:00,77.2,73.7,29.94,WNW,296,1.0,1.0,89,0.00,,,0.00,Wunderground v.1.15,2013-08-28 06:40:00,
2013-08-28 02:41:00,77.2,74.0,29.94,WNW,296,0.0,1.0,90,0.00,,,0.00,Wunderground v.1.15,2013-08-28 06:41:00,
2013-08-28 02:42:00,77.2,74.0,29.94,WNW,288,0.0,1.0,90,0.00,,,0.00,Wunderground v.1.15,2013-08-28 06:42:00,
2013-08-28 02:43:00,77.2,74.0,29.94,WNW,289,0.0,1.0,90,0.00,,,0.00,Wunderground v.1.15,2013-08-28 06:43:00,
2013-08-28 02:47:00,77.2,74.0,29.94,West,267,0.0,1.0,90,0.00,,,0.00,Wunderground v.1.15,2013-08-28 06:47:00,
2013-08-28 02:48:00,77.2,74.0,29.94,West,267,0.0,1.0,90,0.00,,,0.00,Wunderground v.1.15,2013-08-28 06:48:00,
2013-08-28 02:50:00,77.0,73.8,29.94,South,174,0.0,0.0,90,0.00,,,0.00,Wunderground v.1.15,2013-08-28 06:50:00,
2013-08-28 02:53:00,77.0,73.8,29.94,WSW,246,0.0,0.0,90,0.00,,,0.00,Wunderground v.1.15,2013-08-28 06:53:00,
2013-08-28 02:54:00,77.0,73.8,29.94,WSW,248,0.0,0.0,90,0.00,,,0.00,Wunderground v.1.15,2013-08-28 06:54:00,
2013-08-28 02:55:00,77.0,73.8,29.94,WSW,253,0.0,0.0,90,0.00,,,0.00,Wunderground v.1.15,2013-08-28 06:55:00,
2013-08-28 02:56:00,77.0,73.8,29.94,NNW,328,0.0,3.0,90,0.00,,,0.00,Wunderground v.1.15,2013-08-28 06:56:00,
2013-08-28 03:00:00,77.0,73.8,29.94,WSW,237,0.0,0.0,90,0.00,,,0.00,Wunderground v.1.15,2013-08-28 07:00:00,
2013-08-28 03:01:00,77.0,73.8,29.94,NW,315,0.0,0.0,90,0.00,,,0.00,Wunderground v.1.15,2013-08-28 07:01:00,
2013-08-28 03:02:00,77.0,73.8,29.94,NW,312,0.0,0.0,90,0.00,,,0.00,Wunderground v.1.15,2013-08-28 07:02:00,
2013-08-28 03:03:00,77.0,73.8,29.94,WNW,299,0.0,0.0,90,0.00,,,0.00,Wunderground v.1.15,2013-08-28 07:03:00,
2013-08-28 03:06:00,76.8,73.6,29.94,SSW,209,1.0,1.0,90,0.00,,,0.00,Wunderground v.1.15,2013-08-28 07:06:00,
2013-08-28 03:07:00,76.8,73.6,29.94,WSW,251,0.0,1.0,90,0.00,,,0.00,Wunderground v.1.15,2013-08-28 07:07:00,
2013-08-28 03:09:00,76.8,73.6,29.94,NW,316,1.0,2.0,90,0.00,,,0.00,Wunderground v.1.15,2013-08-28 07:09:00,
2013-08-28 03:10:00,76.8,73.6,29.94,NW,305,1.0,1.0,90,0.00,,,0.00,Wunderground v.1.15,2013-08-28 07:10:00,
2013-08-28 03:11:00,76.8,73.6,29.94,NW,305,1.0,1.0,90,0.00,,,0.00,Wunderground v.1.15,2013-08-28 07:11:00,
2013-08-28 03:15:00,76.8,73.6,29.94,West,270,0.0,1.0,90,0.00,,,0.00,Wunderground v.1.15,2013-08-28 07:15:00,
2013-08-28 03:16:00,76.8,73.6,29.94,West,270,0.0,1.0,90,0.00,,,0.00,Wunderground v.1.15,2013-08-28 07:16:00,
2013-08-28 03:17:00,76.8,73.6,29.94,WSW,257,0.0,3.0,90,0.00,,,0.00,Wunderground v.1.15,2013-08-28 07:17:00,
2013-08-28 03:20:00,76.6,73.4,29.94,NW,326,1.0,1.0,90,0.00,,,0.00,Wunderground v.1.15,2013-08-28 07:20:00,
2013-08-28 03:21:00,76.6,73.4,29.94,SW,234,1.0,2.0,90,0.00,,,0.00,Wunderground v.1.15,2013-08-28 07:21:00,
2013-08-28 03:22:00,76.6,73.4,29.94,SSW,213,1.0,2.0,90,0.00,,,0.00,Wunderground v.1.15,2013-08-28 07:22:00,
2013-08-28 03:24:00,76.6,73.4,29.94,WSW,244,1.0,2.0,90,0.00,,,0.00,Wunderground v.1.15,2013-08-28 07:24:00,
2013-08-28 03:27:00,76.6,73.4,29.94,WSW,237,2.0,3.0,90,0.00,,,0.00,Wunderground v.1.15,2013-08-28 07:27:00,
2013-08-28 03:28:00,76.6,73.4,29.94,SW,234,1.0,3.0,90,0.00,,,0.00,Wunderground v.1.15,2013-08-28 07:28:00,
2013-08-28 03:29:00,76.6,73.4,29.94,SW,236,1.0,3.0,90,0.00,,,0.00,Wunderground v.1.15,2013-08-28 07:29:00,
2013-08-28 03:30:00,76.6,73.4,29.94,WNW,301,1.0,1.0,90,0.00,,,0.00,Wunderground v.1.15,2013-08-28 07:30:00,
2013-08-28 03:32:00,76.6,73.4,29.94,WNW,302,1.0,1.0,90,0.00,,,0.00,Wunderground v.1.15,2013-08-28 07:32:00,
2013-08-28 03:35:00,76.6,73.4,29.94,WSW,244,1.0,1.0,90,0.00,,,0.00,Wunderground v.1.15,2013-08-28 07:35:00,
2013-08-28 03:37:00,76.6,73.4,29.94,NW,309,0.0,2.0,90,0.00,,,0.00,Wunderground v.1.15,2013-08-28 07:37:00,
2013-08-28 03:39:00,76.6,73.4,29.94,West,264,0.0,2.0,90,0.00,,,0.00,Wunderground v.1.15,2013-08-28 07:39:00,
2013-08-28 03:41:00,76.6,73.4,29.94,WSW,251,0.0,0.0,90,0.00,,,0.00,Wunderground v.1.15,2013-08-28 07:41:00,
2013-08-28 03:43:00,76.6,73.4,29.94,WNW,291,1.0,1.0,90,0.00,,,0.00,Wunderground v.1.15,2013-08-28 07:43:00,
2013-08-28 03:46:00,76.5,73.3,29.94,WNW,288,1.0,2.0,90,0.00,,,0.00,Wunderground v.1.15,2013-08-28 07:46:00,
2013-08-28 03:47:00,76.5,73.3,29.94,WNW,288,1.0,2.0,90,0.00,,,0.00,Wunderground v.1.15,2013-08-28 07:47:00,
2013-08-28 03:50:00,76.5,73.3,29.94,West,277,1.0,3.0,90,0.00,,,0.00,Wunderground v.1.15,2013-08-28 07:50:00,
2013-08-28 03:52:00,76.5,73.7,29.94,WNW,282,1.0,4.0,91,0.00,,,0.00,Wunderground v.1.15,2013-08-28 07:52:00,
2013-08-28 03:54:00,76.5,73.7,29.94,NW,318,1.0,4.0,91,0.00,,,0.00,Wunderground v.1.15,2013-08-28 07:54:00,
2013-08-28 03:57:00,76.5,73.7,29.94,West,277,1.0,4.0,91,0.00,,,0.00,Wunderground v.1.15,2013-08-28 07:57:00,
2013-08-28 03:59:00,76.5,73.7,29.94,West,277,1.0,4.0,91,0.00,,,0.00,Wunderground v.1.15,2013-08-28 07:59:00,
2013-08-28 04:01:00,76.5,73.3,29.94,West,277,1.0,1.0,90,0.00,,,0.00,Wunderground v.1.15,2013-08-28 08:01:00,
2013-08-28 04:04:00,76.5,73.7,29.94,NW,323,0.0,2.0,91,0.00,,,0.00,Wunderground v.1.15,2013-08-28 08:04:00,
2013-08-28 04:06:00,76.5,73.7,29.94,West,267,0.0,2.0,91,0.00,,,0.00,Wunderground v.1.15,2013-08-28 08:06:00,
2013-08-28 04:07:00,76.5,73.7,29.94,West,267,0.0,2.0,91,0.00,,,0.00,Wunderground v.1.15,2013-08-28 08:07:00,
2013-08-28 04:08:00,76.5,73.7,29.94,West,267,0.0,2.0,91,0.00,,,0.00,Wunderground v.1.15,2013-08-28 08:08:00,
2013-08-28 04:12:00,76.3,73.5,29.94,NW,315,0.0,1.0,91,0.00,,,0.00,Wunderground v.1.15,2013-08-28 08:12:00,
2013-08-28 04:13:00,76.3,73.5,29.94,WSW,240,0.0,1.0,91,0.00,,,0.00,Wunderground v.1.15,2013-08-28 08:13:00,
2013-08-28 04:15:00,76.3,73.5,29.95,SW,232,1.0,3.0,91,0.00,,,0.00,Wunderground v.1.15,2013-08-28 08:15:00,
2013-08-28 04:16:00,76.3,73.5,29.95,SW,232,0.0,3.0,91,0.00,,,0.00,Wunderground v.1.15,2013-08-28 08:16:00,
2013-08-28 04:20:00,76.3,73.5,29.95,West,260,0.0,0.0,91,0.00,,,0.00,Wunderground v.1.15,2013-08-28 08:20:00,
2013-08-28 04:21:00,76.3,73.5,29.95,WSW,258,0.0,1.0,91,0.00,,,0.00,Wunderground v.1.15,2013-08-28 08:21:00,
2013-08-28 04:22:00,76.1,73.3,29.95,WSW,250,0.0,1.0,91,0.00,,,0.00,Wunderground v.1.15,2013-08-28 08:22:00,
2013-08-28 04:23:00,76.1,73.3,29.95,WSW,246,0.0,1.0,91,0.00,,,0.00,Wunderground v.1.15,2013-08-28 08:23:00,
2013-08-28 04:26:00,76.1,73.3,29.95,WNW,282,0.0,2.0,91,0.00,,,0.00,Wunderground v.1.15,2013-08-28 08:26:00,
2013-08-28 04:28:00,76.1,73.3,29.95,NNW,336,0.0,2.0,91,0.00,,,0.00,Wunderground v.1.15,2013-08-28 08:28:00,
2013-08-28 04:29:00,76.1,73.3,29.95,WNW,301,0.0,2.0,91,0.00,,,0.00,Wunderground v.1.15,2013-08-28 08:29:00,
2013-08-28 04:30:00,76.1,73.3,29.95,SW,220,0.0,1.0,91,0.00,,,0.00,Wunderground v.1.15,2013-08-28 08:30:00,
2013-08-28 04:31:00,76.1,73.3,29.95,SW,220,0.0,1.0,91,0.00,,,0.00,Wunderground v.1.15,2013-08-28 08:31:00,
2013-08-28 04:33:00,75.9,73.1,29.95,WSW,256,0.0,1.0,91,0.00,,,0.00,Wunderground v.1.15,2013-08-28 08:33:00,
2013-08-28 04:35:00,75.9,73.1,29.95,SW,215,1.0,3.0,91,0.00,,,0.00,Wunderground v.1.15,2013-08-28 08:35:00,
2013-08-28 04:36:00,75.9,73.1,29.95,NW,322,1.0,3.0,91,0.00,,,0.00,Wunderground v.1.15,2013-08-28 08:36:00,
2013-08-28 04:37:00,75.9,73.1,29.95,NW,322,1.0,3.0,91,0.00,,,0.00,Wunderground v.1.15,2013-08-28 08:37:00,
2013-08-28 04:41:00,75.9,73.1,29.95,NW,325,1.0,1.0,91,0.00,,,0.00,Wunderground v.1.15,2013-08-28 08:41:00,
2013-08-28 04:42:00,75.9,73.1,29.95,WSW,254,1.0,3.0,91,0.00,,,0.00,Wunderground v.1.15,2013-08-28 08:42:00,
2013-08-28 04:43:00,75.9,73.1,29.95,SW,217,1.0,3.0,91,0.00,,,0.00,Wunderground v.1.15,2013-08-28 08:43:00,
2013-08-28 04:44:00,75.9,73.1,29.95,West,278,1.0,3.0,91,0.00,,,0.00,Wunderground v.1.15,2013-08-28 08:44:00,
2013-08-28 04:45:00,75.8,73.0,29.95,West,280,0.0,3.0,91,0.00,,,0.00,Wunderground v.1.15,2013-08-28 08:45:00,
2013-08-28 04:46:00,75.8,73.3,29.95,West,280,0.0,3.0,92,0.00,,,0.00,Wunderground v.1.15,2013-08-28 08:46:00,
2013-08-28 04:47:00,75.8,73.3,29.95,West,278,0.0,3.0,92,0.00,,,0.00,Wunderground v.1.15,2013-08-28 08:47:00,
2013-08-28 04:52:00,75.8,73.3,29.95,West,277,0.0,0.0,92,0.00,,,0.00,Wunderground v.1.15,2013-08-28 08:52:00,
2013-08-28 04:53:00,75.6,73.1,29.95,WNW,294,0.0,1.0,92,0.00,,,0.00,Wunderground v.1.15,2013-08-28 08:53:00,
2013-08-28 04:54:00,75.6,73.1,29.95,West,281,0.0,2.0,92,0.00,,,0.00,Wunderground v.1.15,2013-08-28 08:54:00,
2013-08-28 04:56:00,75.6,73.1,29.95,West,268,0.0,2.0,92,0.00,,,0.00,Wunderground v.1.15,2013-08-28 08:56:00,
2013-08-28 04:59:00,75.6,73.1,29.95,West,267,0.0,2.0,92,0.00,,,0.00,Wunderground v.1.15,2013-08-28 08:59:00,
2013-08-28 05:00:00,75.6,73.1,29.95,SSW,212,1.0,3.0,92,0.00,,,0.00,Wunderground v.1.15,2013-08-28 09:00:00,
2013-08-28 05:01:00,75.6,73.1,29.95,SW,216,1.0,3.0,92,0.00,,,0.00,Wunderground v.1.15,2013-08-28 09:01:00,
2013-08-28 05:03:00,75.6,73.1,29.95,WSW,241,1.0,3.0,92,0.00,,,0.00,Wunderground v.1.15,2013-08-28 09:03:00,
2013-08-28 05:04:00,75.4,72.9,29.95,WSW,254,1.0,3.0,92,0.00,,,0.00,Wunderground v.1.15,2013-08-28 09:04:00,
2013-08-28 05:05:00,75.4,72.9,29.95,WSW,251,1.0,3.0,92,0.00,,,0.00,Wunderground v.1.15,2013-08-28 09:05:00,
2013-08-28 05:10:00,75.4,72.9,29.95,WNW,289,1.0,1.0,92,0.00,,,0.00,Wunderground v.1.15,2013-08-28 09:10:00,
2013-08-28 05:11:00,75.4,72.9,29.95,WNW,288,0.0,1.0,92,0.00,,,0.00,Wunderground v.1.15,2013-08-28 09:11:00,
2013-08-28 05:12:00,75.4,72.9,29.95,West,268,0.0,1.0,92,0.00,,,0.00,Wunderground v.1.15,2013-08-28 09:12:00,
2013-08-28 05:17:00,75.4,72.9,29.96,West,261,0.0,1.0,92,0.00,,,0.00,Wunderground v.1.15,2013-08-28 09:17:00,
2013-08-28 05:18:00,75.4,72.9,29.96,WSW,250,0.0,1.0,92,0.00,,,0.00,Wunderground v.1.15,2013-08-28 09:18:00,
2013-08-28 05:19:00,75.4,72.9,29.96,WSW,250,0.0,1.0,92,0.00,,,0.00,Wunderground v.1.15,2013-08-28 09:19:00,
2013-08-28 05:20:00,75.2,72.7,29.96,WSW,250,0.0,0.0,92,0.00,,,0.00,Wunderground v.1.15,2013-08-28 09:20:00,
2013-08-28 05:24:00,75.2,72.7,29.96,West,274,0.0,1.0,92,0.00,,,0.00,Wunderground v.1.15,2013-08-28 09:24:00,
2013-08-28 05:25:00,75.2,72.7,29.96,West,274,0.0,1.0,92,0.00,,,0.00,Wunderground v.1.15,2013-08-28 09:25:00,
2013-08-28 05:26:00,75.2,72.7,29.96,WSW,246,0.0,1.0,92,0.00,,,0.00,Wunderground v.1.15,2013-08-28 09:26:00,
2013-08-28 05:27:00,75.2,72.7,29.96,West,278,0.0,3.0,92,0.00,,,0.00,Wunderground v.1.15,2013-08-28 09:27:00,
2013-08-28 05:31:00,75.2,72.7,29.95,WSW,257,1.0,1.0,92,0.00,,,0.00,Wunderground v.1.15,2013-08-28 09:31:00,
2013-08-28 05:34:00,75.2,72.7,29.95,SW,236,0.0,1.0,92,0.00,,,0.00,Wunderground v.1.15,2013-08-28 09:34:00,
2013-08-28 05:35:00,75.1,72.6,29.95,WNW,285,0.0,1.0,92,0.00,,,0.00,Wunderground v.1.15,2013-08-28 09:35:00,
2013-08-28 05:37:00,75.1,72.6,29.95,SW,234,0.0,1.0,92,0.00,,,0.00,Wunderground v.1.15,2013-08-28 09:37:00,
2013-08-28 05:40:00,75.1,72.9,29.95,SW,223,1.0,1.0,93,0.00,,,0.00,Wunderground v.1.15,2013-08-28 09:40:00,
2013-08-28 05:41:00,75.1,72.9,29.95,WNW,287,1.0,1.0,93,0.00,,,0.00,Wunderground v.1.15,2013-08-28 09:41:00,
2013-08-28 05:43:00,75.1,72.9,29.95,WSW,247,1.0,1.0,93,0.00,,,0.00,Wunderground v.1.15,2013-08-28 09:43:00,
2013-08-28 05:44:00,75.1,72.9,29.95,WSW,247,1.0,1.0,93,0.00,,,0.00,Wunderground v.1.15,2013-08-28 09:44:00,
2013-08-28 05:48:00,75.1,72.9,29.95,SW,227,1.0,2.0,93,0.00,,,0.00,Wunderground v.1.15,2013-08-28 09:48:00,
2013-08-28 05:49:00,75.1,72.9,29.95,WSW,239,0.0,5.0,93,0.00,,,0.00,Wunderground v.1.15,2013-08-28 09:49:00,
2013-08-28 05:50:00,75.1,72.9,29.95,SW,227,0.0,0.0,93,0.00,,,0.00,Wunderground v.1.15,2013-08-28 09:50:00,
2013-08-28 05:53:00,75.1,72.9,29.95,West,272,1.0,3.0,93,0.00,,,0.00,Wunderground v.1.15,2013-08-28 09:53:00,
2013-08-28 05:54:00,75.1,72.9,29.95,West,272,1.0,3.0,93,0.00,,,0.00,Wunderground v.1.15,2013-08-28 09:54:00,
2013-08-28 05:55:00,74.9,72.7,29.95,WSW,258,1.0,3.0,93,0.00,,,0.00,Wunderground v.1.15,2013-08-28 09:55:00,
2013-08-28 05:59:00,74.9,72.7,29.95,West,268,1.0,3.0,93,0.00,,,0.00,Wunderground v.1.15,2013-08-28 09:59:00,
2013-08-28 06:03:00,74.9,72.7,29.96,WSW,250,0.0,4.0,93,0.00,,,0.00,Wunderground v.1.15,2013-08-28 10:03:00,
2013-08-28 06:04:00,74.9,72.7,29.96,WNW,284,0.0,4.0,93,0.00,,,0.00,Wunderground v.1.15,2013-08-28 10:04:00,
2013-08-28 06:05:00,74.9,72.7,29.96,WNW,284,0.0,4.0,93,0.00,,,0.00,Wunderground v.1.15,2013-08-28 10:05:00,
2013-08-28 06:06:00,74.9,72.7,29.96,West,277,0.0,4.0,93,0.00,,,0.00,Wunderground v.1.15,2013-08-28 10:06:00,
2013-08-28 06:09:00,74.9,72.7,29.96,WNW,295,1.0,4.0,93,0.00,,,0.00,Wunderground v.1.15,2013-08-28 10:09:00,
2013-08-28 06:10:00,74.9,72.7,29.96,WNW,296,1.0,1.0,93,0.00,,,0.00,Wunderground v.1.15,2013-08-28 10:10:00,
2013-08-28 06:11:00,74.9,72.7,29.96,WNW,296,0.0,1.0,93,0.00,,,0.00,Wunderground v.1.15,2013-08-28 10:11:00,
2013-08-28 06:12:00,74.7,72.5,29.96,West,275,0.0,1.0,93,0.00,,,0.00,Wunderground v.1.15,2013-08-28 10:12:00,
2013-08-28 06:15:00,74.7,72.5,29.96,West,264,0.0,1.0,93,0.00,,,0.00,Wunderground v.1.15,2013-08-28 10:15:00,
2013-08-28 06:17:00,74.7,72.5,29.96,West,264,0.0,1.0,93,0.00,,,0.00,Wunderground v.1.15,2013-08-28 10:17:00,
2013-08-28 06:18:00,74.7,72.5,29.96,West,264,0.0,1.0,93,0.00,,,0.00,Wunderground v.1.15,2013-08-28 10:18:00,
2013-08-28 06:19:00,74.7,72.5,29.96,West,265,0.0,1.0,93,0.00,,,0.00,Wunderground v.1.15,2013-08-28 10:19:00,
2013-08-28 06:20:00,74.7,72.5,29.96,West,265,0.0,0.0,93,0.00,,,0.00,Wunderground v.1.15,2013-08-28 10:20:00,
2013-08-28 06:21:00,74.7,72.5,29.96,WSW,253,0.0,0.0,93,0.00,,,0.00,Wunderground v.1.15,2013-08-28 10:21:00,
2013-08-28 06:22:00,74.7,72.5,29.96,SSW,199,0.0,3.0,93,0.00,,,0.00,Wunderground v.1.15,2013-08-28 10:22:00,
2013-08-28 06:25:00,74.7,72.5,29.96,SSW,203,0.0,6.0,93,0.00,,,0.00,Wunderground v.1.15,2013-08-28 10:25:00,
2013-08-28 06:26:00,74.7,72.5,29.96,West,261,1.0,6.0,93,0.00,,,0.00,Wunderground v.1.15,2013-08-28 10:26:00,
2013-08-28 06:29:00,74.5,72.3,29.96,NW,305,1.0,6.0,93,0.00,,,0.00,Wunderground v.1.15,2013-08-28 10:29:00,
2013-08-28 06:31:00,74.5,72.3,29.96,NW,305,1.0,1.0,93,0.00,,,0.00,Wunderground v.1.15,2013-08-28 10:31:00,
2013-08-28 06:32:00,74.5,72.3,29.96,NW,304,0.0,1.0,93,0.00,,,0.00,Wunderground v.1.15,2013-08-28 10:32:00,
2013-08-28 06:33:00,74.5,72.3,29.96,West,263,0.0,1.0,93,0.00,,,0.00,Wunderground v.1.15,2013-08-28 10:33:00,
2013-08-28 06:36:00,74.5,72.3,29.96,West,271,0.0,2.0,93,0.00,,,0.00,Wunderground v.1.15,2013-08-28 10:36:00,
2013-08-28 06:37:00,74.5,72.3,29.96,West,271,0.0,2.0,93,0.00,,,0.00,Wunderground v.1.15,2013-08-28 10:37:00,
2013-08-28 06:39:00,74.5,72.3,29.96,West,260,1.0,2.0,93,0.00,,,0.00,Wunderground v.1.15,2013-08-28 10:39:00,
2013-08-28 06:44:00,74.5,72.3,29.96,West,278,1.0,1.0,93,0.00,,,0.00,Wunderground v.1.15,2013-08-28 10:44:00,
2013-08-28 06:45:00,74.5,72.3,29.96,West,280,0.0,1.0,93,0.00,,,0.00,Wunderground v.1.15,2013-08-28 10:45:00,
2013-08-28 06:46:00,74.5,72.3,29.96,West,280,0.0,1.0,93,0.00,,,0.00,Wunderground v.1.15,2013-08-28 10:46:00,
2013-08-28 06:48:00,74.4,72.2,29.96,WNW,296,0.0,1.0,93,0.00,,,0.00,Wunderground v.1.15,2013-08-28 10:48:00,
2013-08-28 06:51:00,74.4,72.2,29.96,NW,308,0.0,0.0,93,0.00,,,0.00,Wunderground v.1.15,2013-08-28 10:51:00,
2013-08-28 06:53:00,74.4,72.2,29.96,West,261,0.0,0.0,93,0.00,,,0.00,Wunderground v.1.15,2013-08-28 10:53:00,
2013-08-28 06:54:00,74.4,72.2,29.96,West,272,0.0,0.0,93,0.00,,,0.00,Wunderground v.1.15,2013-08-28 10:54:00,
2013-08-28 06:56:00,74.4,72.2,29.96,WSW,257,0.0,2.0,93,0.00,,,0.00,Wunderground v.1.15,2013-08-28 10:56:00,
2013-08-28 06:59:00,74.2,72.0,29.96,WNW,282,1.0,4.0,93,0.00,,,0.00,Wunderground v.1.15,2013-08-28 10:59:00,
2013-08-28 07:00:00,74.2,72.0,29.96,SW,219,1.0,3.0,93,0.00,,,0.00,Wunderground v.1.15,2013-08-28 11:00:00,
2013-08-28 07:01:00,74.2,72.0,29.96,SW,219,1.0,3.0,93,0.00,,,0.00,Wunderground v.1.15,2013-08-28 11:01:00,
2013-08-28 07:04:00,74.2,72.0,29.96,West,261,0.0,3.0,93,0.00,,,0.00,Wunderground v.1.15,2013-08-28 11:04:00,
2013-08-28 07:05:00,74.2,72.0,29.96,West,263,0.0,3.0,93,0.00,,,0.00,Wunderground v.1.15,2013-08-28 11:05:00,
2013-08-28 07:06:00,74.2,72.0,29.96,West,272,0.0,3.0,93,0.00,,,0.00,Wunderground v.1.15,2013-08-28 11:06:00,
2013-08-28 07:09:00,74.2,72.0,29.96,WSW,248,0.0,3.0,93,0.00,,,0.00,Wunderground v.1.15,2013-08-28 11:09:00,
2013-08-28 07:10:00,74.2,72.0,29.96,West,264,0.0,0.0,93,0.00,,,0.00,Wunderground v.1.15,2013-08-28 11:10:00,
2013-08-28 07:13:00,74.2,72.0,29.96,West,278,0.0,0.0,93,0.00,,,0.00,Wunderground v.1.15,2013-08-28 11:13:00,
2013-08-28 07:14:00,74.2,72.0,29.96,West,278,0.0,0.0,93,0.00,,,0.00,Wunderground v.1.15,2013-08-28 11:14:00,
2013-08-28 07:15:00,74.2,72.0,29.97,WNW,291,0.0,0.0,93,0.00,,,0.00,Wunderground v.1.15,2013-08-28 11:15:00,
2013-08-28 07:19:00,74.2,72.0,29.97,West,263,0.0,1.0,93,0.00,,,0.00,Wunderground v.1.15,2013-08-28 11:19:00,
2013-08-28 07:21:00,74.2,72.0,29.97,West,264,0.0,0.0,93,0.00,,,0.00,Wunderground v.1.15,2013-08-28 11:21:00,
2013-08-28 07:22:00,74.2,72.0,29.97,West,264,0.0,0.0,93,0.00,,,0.00,Wunderground v.1.15,2013-08-28 11:22:00,
2013-08-28 07:23:00,74.2,72.0,29.97,West,267,0.0,0.0,93,0.00,,,0.00,Wunderground v.1.15,2013-08-28 11:23:00,
2013-08-28 07:26:00,74.2,72.0,29.97,WSW,241,0.0,1.0,93,0.00,,,0.00,Wunderground v.1.15,2013-08-28 11:26:00,
2013-08-28 07:31:00,74.2,72.0,29.97,WSW,258,0.0,0.0,93,0.00,,,0.00,Wunderground v.1.15,2013-08-28 11:31:00,
2013-08-28 07:32:00,74.2,72.0,29.97,WSW,258,0.0,0.0,93,0.00,,,0.00,Wunderground v.1.15,2013-08-28 11:32:00,
2013-08-28 07:33:00,74.0,71.8,29.97,WSW,258,0.0,0.0,93,0.00,,,0.00,Wunderground v.1.15,2013-08-28 11:33:00,
2013-08-28 07:34:00,74.0,71.8,29.97,West,267,0.0,0.0,93,0.00,,,0.00,Wunderground v.1.15,2013-08-28 11:34:00,
2013-08-28 07:38:00,74.0,71.8,29.97,WNW,289,0.0,3.0,93,0.00,,,0.00,Wunderground v.1.15,2013-08-28 11:38:00,
2013-08-28 07:39:00,74.0,71.8,29.97,WNW,285,0.0,3.0,93,0.00,,,0.00,Wunderground v.1.15,2013-08-28 11:39:00,
2013-08-28 07:40:00,74.0,71.8,29.97,WNW,285,0.0,0.0,93,0.00,,,0.00,Wunderground v.1.15,2013-08-28 11:40:00,
2013-08-28 07:41:00,74.0,71.8,29.97,West,275,0.0,0.0,93,0.00,,,0.00,Wunderground v.1.15,2013-08-28 11:41:00,
2013-08-28 07:44:00,74.0,71.8,29.97,SSW,209,0.0,0.0,93,0.00,,,0.00,Wunderground v.1.15,2013-08-28 11:44:00,
2013-08-28 07:45:00,74.0,71.8,29.97,WNW,296,0.0,2.0,93,0.00,,,0.00,Wunderground v.1.15,2013-08-28 11:45:00,
2013-08-28 07:47:00,74.0,71.8,29.97,West,278,0.0,2.0,93,0.00,,,0.00,Wunderground v.1.15,2013-08-28 11:47:00,
2013-08-28 07:48:00,74.0,71.8,29.97,West,278,0.0,2.0,93,0.00,,,0.00,Wunderground v.1.15,2013-08-28 11:48:00,
2013-08-28 07:50:00,74.0,71.8,29.97,WNW,287,0.0,3.0,93,0.00,,,0.00,Wunderground v.1.15,2013-08-28 11:50:00,
2013-08-28 07:51:00,74.0,71.8,29.97,WNW,292,0.0,3.0,93,0.00,,,0.00,Wunderground v.1.15,2013-08-28 11:51:00,
2013-08-28 07:53:00,74.0,71.8,29.97,WNW,294,0.0,3.0,93,0.00,,,0.00,Wunderground v.1.15,2013-08-28 11:53:00,
2013-08-28 07:55:00,74.0,71.8,29.97,WNW,296,0.0,3.0,93,0.00,,,0.00,Wunderground v.1.15,2013-08-28 11:55:00,
2013-08-28 07:56:00,74.0,71.8,29.97,West,281,0.0,3.0,93,0.00,,,0.00,Wunderground v.1.15,2013-08-28 11:56:00,
2013-08-28 07:57:00,74.0,71.8,29.97,WNW,289,0.0,3.0,93,0.00,,,0.00,Wunderground v.1.15,2013-08-28 11:57:00,
2013-08-28 07:58:00,74.0,71.8,29.97,WNW,291,0.0,3.0,93,0.00,,,0.00,Wunderground v.1.15,2013-08-28 11:58:00,
2013-08-28 08:00:00,74.0,71.8,29.96,WNW,296,1.0,1.0,93,0.00,,,0.00,Wunderground v.1.15,2013-08-28 12:00:00,
2013-08-28 08:02:00,74.0,71.8,29.96,WNW,295,0.0,1.0,93,0.00,,,0.00,Wunderground v.1.15,2013-08-28 12:02:00,
2013-08-28 08:05:00,74.0,71.8,29.96,WNW,282,1.0,2.0,93,0.00,,,0.00,Wunderground v.1.15,2013-08-28 12:05:00,
2013-08-28 08:06:00,74.0,71.8,29.96,WNW,282,1.0,2.0,93,0.00,,,0.00,Wunderground v.1.15,2013-08-28 12:06:00,
2013-08-28 08:10:00,74.0,71.8,29.96,West,278,1.0,1.0,93,0.00,,,0.00,Wunderground v.1.15,2013-08-28 12:10:00,
2013-08-28 08:11:00,74.0,71.8,29.96,NW,325,1.0,1.0,93,0.00,,,0.00,Wunderground v.1.15,2013-08-28 12:11:00,
2013-08-28 08:12:00,74.0,71.5,29.96,NW,325,1.0,1.0,92,0.00,,,0.00,Wunderground v.1.15,2013-08-28 12:12:00,
2013-08-28 08:14:00,74.0,71.5,29.96,SW,222,1.0,1.0,92,0.00,,,0.00,Wunderground v.1.15,2013-08-28 12:14:00,
2013-08-28 08:16:00,74.0,71.5,29.96,SW,226,0.0,1.0,92,0.00,,,0.00,Wunderground v.1.15,2013-08-28 12:16:00,
2013-08-28 08:17:00,74.0,71.5,29.96,SW,226,0.0,1.0,92,0.00,,,0.00,Wunderground v.1.15,2013-08-28 12:17:00,
2013-08-28 08:18:00,74.2,71.7,29.96,West,260,0.0,1.0,92,0.00,,,0.00,Wunderground v.1.15,2013-08-28 12:18:00,
2013-08-28 08:21:00,74.2,71.7,29.96,West,278,1.0,1.0,92,0.00,,,0.00,Wunderground v.1.15,2013-08-28 12:21:00,
2013-08-28 08:23:00,74.2,71.7,29.96,WNW,289,1.0,3.0,92,0.00,,,0.00,Wunderground v.1.15,2013-08-28 12:23:00,
2013-08-28 08:24:00,74.2,71.7,29.96,SW,226,1.0,3.0,92,0.00,,,0.00,Wunderground v.1.15,2013-08-28 12:24:00,
2013-08-28 08:28:00,74.2,71.7,29.96,WSW,244,1.0,3.0,92,0.00,,,0.00,Wunderground v.1.15,2013-08-28 12:28:00,
2013-08-28 08:29:00,74.2,71.7,29.96,WSW,244,1.0,3.0,92,0.00,,,0.00,Wunderground v.1.15,2013-08-28 12:29:00,
2013-08-28 08:31:00,74.4,71.9,29.97,West,277,1.0,1.0,92,0.00,,,0.00,Wunderground v.1.15,2013-08-28 12:31:00,
2013-08-28 08:32:00,74.4,71.9,29.97,West,268,1.0,2.0,92,0.00,,,0.00,Wunderground v.1.15,2013-08-28 12:32:00,
2013-08-28 08:34:00,74.4,71.9,29.97,NNW,346,1.0,2.0,92,0.00,,,0.00,Wunderground v.1.15,2013-08-28 12:34:00,
2013-08-28 08:35:00,74.4,71.9,29.97,NW,304,1.0,2.0,92,0.00,,,0.00,Wunderground v.1.15,2013-08-28 12:35:00,
2013-08-28 08:36:00,74.4,71.9,29.97,WNW,302,1.0,2.0,92,0.00,,,0.00,Wunderground v.1.15,2013-08-28 12:36:00,
2013-08-28 08:37:00,74.4,71.9,29.97,WNW,302,1.0,2.0,92,0.00,,,0.00,Wunderground v.1.15,2013-08-28 12:37:00,
2013-08-28 08:39:00,74.5,71.7,29.97,WSW,241,1.0,2.0,91,0.00,,,0.00,Wunderground v.1.15,2013-08-28 12:39:00,
2013-08-28 08:40:00,74.5,71.7,29.97,WNW,302,1.0,1.0,91,0.00,,,0.00,Wunderground v.1.15,2013-08-28 12:40:00,
2013-08-28 08:43:00,74.5,71.7,29.97,WSW,258,1.0,7.0,91,0.00,,,0.00,Wunderground v.1.15,2013-08-28 12:43:00,
2013-08-28 08:46:00,74.5,71.7,29.97,SW,215,1.0,7.0,91,0.00,,,0.00,Wunderground v.1.15,2013-08-28 12:46:00,
2013-08-28 08:47:00,74.7,71.9,29.97,SW,216,1.0,7.0,91,0.00,,,0.00,Wunderground v.1.15,2013-08-28 12:47:00,
2013-08-28 08:48:00,74.7,71.9,29.97,WNW,282,1.0,7.0,91,0.00,,,0.00,Wunderground v.1.15,2013-08-28 12:48:00,
2013-08-28 08:49:00,74.7,71.9,29.97,West,263,1.0,7.0,91,0.00,,,0.00,Wunderground v.1.15,2013-08-28 12:49:00,
2013-08-28 08:52:00,74.7,71.9,29.97,NW,315,1.0,1.0,91,0.00,,,0.00,Wunderground v.1.15,2013-08-28 12:52:00,
2013-08-28 08:53:00,74.7,71.9,29.97,NNE,17,1.0,3.0,91,0.00,,,0.00,Wunderground v.1.15,2013-08-28 12:53:00,
2013-08-28 08:54:00,74.9,72.1,29.97,SW,215,1.0,3.0,91,0.00,,,0.00,Wunderground v.1.15,2013-08-28 12:54:00,
2013-08-28 08:57:00,74.9,72.1,29.97,SW,230,1.0,3.0,91,0.00,,,0.00,Wunderground v.1.15,2013-08-28 12:57:00,
2013-08-28 08:58:00,74.9,72.1,29.97,West,272,1.0,3.0,91,0.00,,,0.00,Wunderground v.1.15,2013-08-28 12:58:00,
2013-08-28 09:00:00,75.1,72.3,29.97,West,270,1.0,1.0,91,0.00,,,0.00,Wunderground v.1.15,2013-08-28 13:00:00,
2013-08-28 09:01:00,75.1,72.0,29.97,West,270,1.0,1.0,90,0.00,,,0.00,Wunderground v.1.15,2013-08-28 13:01:00,
2013-08-28 09:05:00,75.2,72.1,29.97,WSW,254,1.0,2.0,90,0.00,,,0.00,Wunderground v.1.15,2013-08-28 13:05:00,
2013-08-28 09:06:00,75.2,72.1,29.97,WSW,254,1.0,2.0,90,0.00,,,0.00,Wunderground v.1.15,2013-08-28 13:06:00,
2013-08-28 09:07:00,75.2,72.1,29.97,WSW,251,1.0,2.0,90,0.00,,,0.00,Wunderground v.1.15,2013-08-28 13:07:00,
2013-08-28 09:08:00,75.2,72.1,29.97,NW,311,0.0,2.0,90,0.00,,,0.00,Wunderground v.1.15,2013-08-28 13:08:00,
2013-08-28 09:10:00,75.4,72.3,29.97,WSW,254,1.0,1.0,90,0.00,,,0.00,Wunderground v.1.15,2013-08-28 13:10:00,
2013-08-28 09:12:00,75.4,72.3,29.97,SSW,202,1.0,4.0,90,0.00,,,0.00,Wunderground v.1.15,2013-08-28 13:12:00,
2013-08-28 09:13:00,75.6,72.5,29.97,WNW,287,1.0,4.0,90,0.00,,,0.00,Wunderground v.1.15,2013-08-28 13:13:00,
2013-08-28 09:15:00,75.6,72.1,29.96,WNW,287,1.0,4.0,89,0.00,,,0.00,Wunderground v.1.15,2013-08-28 13:15:00,
2013-08-28 09:17:00,75.8,72.3,29.96,WSW,241,1.0,7.0,89,0.00,,,0.00,Wunderground v.1.15,2013-08-28 13:17:00,
2013-08-28 09:19:00,75.8,72.3,29.96,NW,320,1.0,7.0,89,0.00,,,0.00,Wunderground v.1.15,2013-08-28 13:19:00,
2013-08-28 09:20:00,75.9,72.4,29.96,NW,320,1.0,1.0,89,0.00,,,0.00,Wunderground v.1.15,2013-08-28 13:20:00,
2013-08-28 09:21:00,75.9,72.4,29.96,SW,222,1.0,5.0,89,0.00,,,0.00,Wunderground v.1.15,2013-08-28 13:21:00,
2013-08-28 09:22:00,75.9,72.1,29.96,SW,222,1.0,5.0,88,0.00,,,0.00,Wunderground v.1.15,2013-08-28 13:22:00,
2013-08-28 09:23:00,76.1,72.3,29.96,SSW,212,1.0,5.0,88,0.00,,,0.00,Wunderground v.1.15,2013-08-28 13:23:00,
2013-08-28 09:26:00,76.3,72.5,29.96,NW,306,2.0,6.0,88,0.00,,,0.00,Wunderground v.1.15,2013-08-28 13:26:00,
2013-08-28 09:27:00,76.3,72.1,29.96,WSW,241,2.0,6.0,87,0.00,,,0.00,Wunderground v.1.15,2013-08-28 13:27:00,
2013-08-28 09:28:00,76.5,72.3,29.96,WSW,240,2.0,6.0,87,0.00,,,0.00,Wunderground v.1.15,2013-08-28 13:28:00,
2013-08-28 09:29:00,76.5,72.3,29.96,West,278,2.0,6.0,87,0.00,,,0.00,Wunderground v.1.15,2013-08-28 13:29:00,
2013-08-28 09:32:00,76.6,72.4,29.96,WNW,288,2.0,3.0,87,0.00,,,0.00,Wunderground v.1.15,2013-08-28 13:32:00,
2013-08-28 09:33:00,76.6,72.4,29.96,WNW,289,3.0,3.0,87,0.00,,,0.00,Wunderground v.1.15,2013-08-28 13:33:00,
2013-08-28 09:35:00,76.8,72.3,29.96,NNW,344,3.0,6.0,86,0.00,,,0.00,Wunderground v.1.15,2013-08-28 13:35:00,
2013-08-28 09:36:00,76.8,72.3,29.96,WNW,301,3.0,6.0,86,0.00,,,0.00,Wunderground v.1.15,2013-08-28 13:36:00,
2013-08-28 09:38:00,77.0,72.5,29.96,NW,306,3.0,6.0,86,0.00,,,0.00,Wunderground v.1.15,2013-08-28 13:38:00,
2013-08-28 09:39:00,77.0,72.5,29.96,NNW,328,2.0,6.0,86,0.00,,,0.00,Wunderground v.1.15,2013-08-28 13:39:00,
2013-08-28 09:42:00,77.2,72.3,29.96,NW,305,3.0,6.0,85,0.00,,,0.00,Wunderground v.1.15,2013-08-28 13:42:00,
2013-08-28 09:44:00,77.2,72.0,29.96,WNW,289,3.0,6.0,84,0.00,,,0.00,Wunderground v.1.15,2013-08-28 13:44:00,
2013-08-28 09:45:00,77.2,72.0,29.96,South,184,3.0,6.0,84,0.00,,,0.00,Wunderground v.1.15,2013-08-28 13:45:00,
2013-08-28 09:47:00,77.3,72.1,29.96,NW,318,2.0,6.0,84,0.00,,,0.00,Wunderground v.1.15,2013-08-28 13:47:00,
2013-08-28 09:48:00,77.3,72.1,29.96,NW,325,2.0,6.0,84,0.00,,,0.00,Wunderground v.1.15,2013-08-28 13:48:00,
2013-08-28 09:50:00,77.3,72.1,29.96,NW,323,3.0,8.0,84,0.00,,,0.00,Wunderground v.1.15,2013-08-28 13:50:00,
2013-08-28 09:52:00,77.5,71.9,29.96,NNW,329,4.0,8.0,83,0.00,,,0.00,Wunderground v.1.15,2013-08-28 13:52:00,
2013-08-28 09:53:00,77.5,71.9,29.96,NNW,335,3.0,8.0,83,0.00,,,0.00,Wunderground v.1.15,2013-08-28 13:53:00,
2013-08-28 09:57:00,77.9,72.3,29.96,WNW,284,3.0,8.0,83,0.00,,,0.00,Wunderground v.1.15,2013-08-28 13:57:00,
2013-08-28 09:58:00,77.9,72.3,29.96,NNW,344,3.0,8.0,83,0.00,,,0.00,Wunderground v.1.15,2013-08-28 13:58:00,
2013-08-28 10:03:00,78.2,72.6,29.96,WNW,282,1.0,3.0,83,0.00,,,0.00,Wunderground v.1.15,2013-08-28 14:03:00,
2013-08-28 10:04:00,78.2,72.6,29.96,West,280,1.0,3.0,83,0.00,,,0.00,Wunderground v.1.15,2013-08-28 14:04:00,
2013-08-28 10:06:00,78.4,72.4,29.96,SSW,195,1.0,3.0,82,0.00,,,0.00,Wunderground v.1.15,2013-08-28 14:06:00,
2013-08-28 10:07:00,78.4,72.4,29.96,WSW,254,1.0,3.0,82,0.00,,,0.00,Wunderground v.1.15,2013-08-28 14:07:00,
2013-08-28 10:09:00,78.6,72.6,29.96,WNW,302,1.0,3.0,82,0.00,,,0.00,Wunderground v.1.15,2013-08-28 14:09:00,
2013-08-28 10:11:00,78.6,72.3,29.96,WNW,296,2.0,5.0,81,0.00,,,0.00,Wunderground v.1.15,2013-08-28 14:11:00,
2013-08-28 10:15:00,78.8,72.5,29.96,WSW,240,3.0,5.0,81,0.00,,,0.00,Wunderground v.1.15,2013-08-28 14:15:00,
2013-08-28 10:16:00,79.0,72.3,29.96,West,278,3.0,5.0,80,0.00,,,0.00,Wunderground v.1.15,2013-08-28 14:16:00,
2013-08-28 10:18:00,79.0,72.3,29.96,West,267,3.0,5.0,80,0.00,,,0.00,Wunderground v.1.15,2013-08-28 14:18:00,
2013-08-28 10:19:00,79.1,72.4,29.96,WNW,296,3.0,5.0,80,0.00,,,0.00,Wunderground v.1.15,2013-08-28 14:19:00,
2013-08-28 10:20:00,79.1,72.0,29.96,SW,215,3.0,3.0,79,0.00,,,0.00,Wunderground v.1.15,2013-08-28 14:20:00,
2013-08-28 10:22:00,79.1,72.0,29.96,NW,313,3.0,6.0,79,0.00,,,0.00,Wunderground v.1.15,2013-08-28 14:22:00,
2013-08-28 10:24:00,79.3,72.2,29.96,NNW,333,4.0,6.0,79,0.00,,,0.00,Wunderground v.1.15,2013-08-28 14:24:00,
2013-08-28 10:25:00,79.3,72.2,29.96,WNW,294,4.0,6.0,79,0.00,,,0.00,Wunderground v.1.15,2013-08-28 14:25:00,
2013-08-28 10:27:00,79.5,72.4,29.96,NW,306,4.0,6.0,79,0.00,,,0.00,Wunderground v.1.15,2013-08-28 14:27:00,
2013-08-28 10:29:00,79.7,72.2,29.96,NW,305,4.0,6.0,78,0.00,,,0.00,Wunderground v.1.15,2013-08-28 14:29:00,
2013-08-28 10:31:00,79.7,72.2,29.96,NW,313,4.0,7.0,78,0.00,,,0.00,Wunderground v.1.15,2013-08-28 14:31:00,
2013-08-28 10:33:00,79.9,72.4,29.96,WSW,244,4.0,7.0,78,0.00,,,0.00,Wunderground v.1.15,2013-08-28 14:33:00,
2013-08-28 10:35:00,80.1,72.6,29.96,NW,309,3.0,7.0,78,0.00,,,0.00,Wunderground v.1.15,2013-08-28 14:35:00,
2013-08-28 10:36:00,80.3,72.4,29.96,WNW,289,3.0,7.0,77,0.00,,,0.00,Wunderground v.1.15,2013-08-28 14:36:00,
2013-08-28 10:37:00,80.4,72.5,29.96,SSW,213,3.0,7.0,77,0.00,,,0.00,Wunderground v.1.15,2013-08-28 14:37:00,
2013-08-28 10:39:00,80.6,72.3,29.96,West,270,3.0,8.0,76,0.00,,,0.00,Wunderground v.1.15,2013-08-28 14:39:00,
2013-08-28 10:41:00,80.6,71.9,29.96,WNW,288,4.0,4.0,75,0.00,,,0.00,Wunderground v.1.15,2013-08-28 14:41:00,
2013-08-28 10:44:00,81.0,72.3,29.96,NW,318,5.0,6.0,75,0.00,,,0.00,Wunderground v.1.15,2013-08-28 14:44:00,
2013-08-28 10:47:00,81.0,72.3,29.96,NNW,330,5.0,7.0,75,0.00,,,0.00,Wunderground v.1.15,2013-08-28 14:47:00,
2013-08-28 10:48:00,81.0,72.3,29.96,SSW,196,5.0,11.0,75,0.00,,,0.00,Wunderground v.1.15,2013-08-28 14:48:00,
2013-08-28 10:49:00,81.0,71.9,29.96,West,268,5.0,11.0,74,0.00,,,0.00,Wunderground v.1.15,2013-08-28 14:49:00,
2013-08-28 10:52:00,81.4,72.3,29.96,WSW,253,4.0,7.0,74,0.00,,,0.00,Wunderground v.1.15,2013-08-28 14:52:00,
2013-08-28 10:53:00,81.4,72.3,29.96,SSW,206,4.0,8.0,74,0.00,,,0.00,Wunderground v.1.15,2013-08-28 14:53:00,
2013-08-28 10:55:00,81.4,71.9,29.96,WNW,291,4.0,8.0,73,0.00,,,0.00,Wunderground v.1.15,2013-08-28 14:55:00,
2013-08-28 10:56:00,81.4,71.9,29.96,West,280,4.0,8.0,73,0.00,,,0.00,Wunderground v.1.15,2013-08-28 14:56:00,
2013-08-28 10:59:00,81.9,72.0,29.96,NW,306,4.0,8.0,72,0.00,,,0.00,Wunderground v.1.15,2013-08-28 14:59:00,
2013-08-28 11:01:00,82.1,72.2,29.96,North,350,5.0,10.0,72,0.00,,,0.00,Wunderground v.1.15,2013-08-28 15:01:00,
2013-08-28 11:02:00,82.3,71.5,29.96,NW,305,5.0,10.0,70,0.00,,,0.00,Wunderground v.1.15,2013-08-28 15:02:00,
2013-08-28 11:05:00,82.5,72.1,29.96,NW,308,5.0,10.0,71,0.00,,,0.00,Wunderground v.1.15,2013-08-28 15:05:00,
2013-08-28 11:07:00,82.7,71.9,29.96,NW,319,4.0,10.0,70,0.00,,,0.00,Wunderground v.1.15,2013-08-28 15:07:00,
2013-08-28 11:08:00,82.7,71.9,29.96,NW,320,4.0,10.0,70,0.00,,,0.00,Wunderground v.1.15,2013-08-28 15:08:00,
2013-08-28 11:10:00,82.9,72.1,29.96,WNW,292,4.0,4.0,70,0.00,,,0.00,Wunderground v.1.15,2013-08-28 15:10:00,
2013-08-28 11:11:00,82.9,71.7,29.96,NW,308,4.0,6.0,69,0.00,,,0.00,Wunderground v.1.15,2013-08-28 15:11:00,
2013-08-28 11:13:00,83.1,71.9,29.96,WNW,291,3.0,6.0,69,0.00,,,0.00,Wunderground v.1.15,2013-08-28 15:13:00,
2013-08-28 11:14:00,83.3,72.1,29.96,West,268,3.0,6.0,69,0.00,,,0.00,Wunderground v.1.15,2013-08-28 15:14:00,
2013-08-28 11:16:00,83.7,72.0,29.95,SSW,210,3.0,6.0,68,0.00,,,0.00,Wunderground v.1.15,2013-08-28 15:16:00,
2013-08-28 11:19:00,83.9,71.8,29.95,WNW,284,3.0,6.0,67,0.00,,,0.00,Wunderground v.1.15,2013-08-28 15:19:00,
2013-08-28 11:21:00,84.1,72.4,29.95,West,277,3.0,6.0,68,0.00,,,0.00,Wunderground v.1.15,2013-08-28 15:21:00,
2013-08-28 11:22:00,84.1,72.0,29.95,SSW,192,3.0,7.0,67,0.00,,,0.00,Wunderground v.1.15,2013-08-28 15:22:00,
2013-08-28 11:24:00,84.3,71.7,29.95,SW,226,4.0,7.0,66,0.00,,,0.00,Wunderground v.1.15,2013-08-28 15:24:00,
2013-08-28 11:26:00,84.5,71.9,29.95,SSW,206,4.0,7.0,66,0.00,,,0.00,Wunderground v.1.15,2013-08-28 15:26:00,
2013-08-28 11:27:00,84.5,71.9,29.95,WNW,301,4.0,7.0,66,0.00,,,0.00,Wunderground v.1.15,2013-08-28 15:27:00,
2013-08-28 11:28:00,84.6,72.4,29.95,WSW,244,4.0,7.0,67,0.00,,,0.00,Wunderground v.1.15,2013-08-28 15:28:00,
2013-08-28 11:29:00,84.6,72.4,29.95,WNW,291,4.0,7.0,67,0.00,,,0.00,Wunderground v.1.15,2013-08-28 15:29:00,
2013-08-28 11:31:00,84.8,71.7,29.95,SW,216,4.0,5.0,65,0.00,,,0.00,Wunderground v.1.15,2013-08-28 15:31:00,
2013-08-28 11:32:00,84.8,71.7,29.95,SSW,208,4.0,5.0,65,0.00,,,0.00,Wunderground v.1.15,2013-08-28 15:32:00,
2013-08-28 11:33:00,85.0,71.9,29.95,NW,322,4.0,5.0,65,0.00,,,0.00,Wunderground v.1.15,2013-08-28 15:33:00,
2013-08-28 11:37:00,85.4,71.8,29.95,NW,306,3.0,7.0,64,0.00,,,0.00,Wunderground v.1.15,2013-08-28 15:37:00,
2013-08-28 11:38:00,85.4,71.4,29.95,NNW,339,4.0,7.0,63,0.00,,,0.00,Wunderground v.1.15,2013-08-28 15:38:00,
2013-08-28 11:40:00,85.4,71.8,29.95,SW,236,4.0,5.0,64,0.00,,,0.00,Wunderground v.1.15,2013-08-28 15:40:00,
2013-08-28 11:41:00,85.4,72.3,29.95,NW,323,4.0,5.0,65,0.00,,,0.00,Wunderground v.1.15,2013-08-28 15:41:00,
2013-08-28 11:42:00,85.6,72.5,29.95,SSW,206,4.0,7.0,65,0.00,,,0.00,Wunderground v.1.15,2013-08-28 15:42:00,
2013-08-28 11:45:00,85.8,72.2,29.95,WSW,256,3.0,7.0,64,0.00,,,0.00,Wunderground v.1.15,2013-08-28 15:45:00,
2013-08-28 11:46:00,86.0,72.4,29.95,South,188,4.0,7.0,64,0.00,,,0.00,Wunderground v.1.15,2013-08-28 15:46:00,
2013-08-28 11:49:00,86.2,72.1,29.95,South,182,3.0,7.0,63,0.00,,,0.00,Wunderground v.1.15,2013-08-28 15:49:00,
2013-08-28 11:50:00,86.2,72.1,29.95,WSW,256,4.0,4.0,63,0.00,,,0.00,Wunderground v.1.15,2013-08-28 15:50:00,
2013-08-28 11:51:00,86.2,72.1,29.95,WNW,291,4.0,4.0,63,0.00,,,0.00,Wunderground v.1.15,2013-08-28 15:51:00,
2013-08-28 11:53:00,86.2,71.6,29.95,WNW,296,4.0,5.0,62,0.00,,,0.00,Wunderground v.1.15,2013-08-28 15:53:00,
2013-08-28 11:54:00,86.2,71.6,29.95,West,281,4.0,7.0,62,0.00,,,0.00,Wunderground v.1.15,2013-08-28 15:54:00,
2013-08-28 11:55:00,86.4,71.8,29.95,SSW,202,4.0,7.0,62,0.00,,,0.00,Wunderground v.1.15,2013-08-28 15:55:00,
2013-08-28 11:57:00,86.4,71.8,29.95,SSW,209,4.0,8.0,62,0.00,,,0.00,Wunderground v.1.15,2013-08-28 15:57:00,
2013-08-28 11:59:00,86.6,72.0,29.95,NW,323,4.0,8.0,62,0.00,,,0.00,Wunderground v.1.15,2013-08-28 15:59:00,
2013-08-28 12:00:00,86.6,71.5,29.95,WNW,296,4.0,4.0,61,0.00,,,0.00,Wunderground v.1.15,2013-08-28 16:00:00,
2013-08-28 12:02:00,86.6,71.5,29.95,NW,306,4.0,5.0,61,0.00,,,0.00,Wunderground v.1.15,2013-08-28 16:02:00,
2013-08-28 12:05:00,86.8,71.7,29.95,North,350,4.0,6.0,61,0.00,,,0.00,Wunderground v.1.15,2013-08-28 16:05:00,
2013-08-28 12:07:00,86.8,71.2,29.95,WSW,251,5.0,7.0,60,0.00,,,0.00,Wunderground v.1.15,2013-08-28 16:07:00,
2013-08-28 12:08:00,86.8,71.2,29.95,SW,229,5.0,7.0,60,0.00,,,0.00,Wunderground v.1.15,2013-08-28 16:08:00,
2013-08-28 12:09:00,87.0,71.4,29.95,SW,234,6.0,7.0,60,0.00,,,0.00,Wunderground v.1.15,2013-08-28 16:09:00,
2013-08-28 12:10:00,87.0,71.9,29.95,NW,306,6.0,6.0,61,0.00,,,0.00,Wunderground v.1.15,2013-08-28 16:10:00,
2013-08-28 12:12:00,87.2,71.1,29.95,NNW,329,6.0,6.0,59,0.00,,,0.00,Wunderground v.1.15,2013-08-28 16:12:00,
2013-08-28 12:15:00,87.2,71.6,29.95,WSW,246,6.0,10.0,60,0.00,,,0.00,Wunderground v.1.15,2013-08-28 16:15:00,
2013-08-28 12:16:00,87.5,71.9,29.95,NNW,332,6.0,10.0,60,0.00,,,0.00,Wunderground v.1.15,2013-08-28 16:16:00,
2013-08-28 12:18:00,87.7,71.6,29.95,SSW,212,5.0,10.0,59,0.00,,,0.00,Wunderground v.1.15,2013-08-28 16:18:00,
2013-08-28 12:21:00,87.9,71.8,29.95,North,350,3.0,7.0,59,0.00,,,0.00,Wunderground v.1.15,2013-08-28 16:21:00,
2013-08-28 12:23:00,88.1,72.5,29.95,West,280,3.0,7.0,60,0.00,,,0.00,Wunderground v.1.15,2013-08-28 16:23:00,
2013-08-28 12:24:00,88.1,71.5,29.95,West,264,2.0,7.0,58,0.00,,,0.00,Wunderground v.1.15,2013-08-28 16:24:00,
2013-08-28 12:27:00,88.5,71.8,29.95,NW,311,2.0,7.0,58,0.00,,,0.00,Wunderground v.1.15,2013-08-28 16:27:00,
2013-08-28 12:29:00,88.7,72.5,29.95,WNW,288,2.0,7.0,59,0.00,,,0.00,Wunderground v.1.15,2013-08-28 16:29:00,
2013-08-28 12:31:00,88.7,72.5,29.94,WNW,289,3.0,3.0,59,0.00,,,0.00,Wunderground v.1.15,2013-08-28 16:31:00,
2013-08-28 12:32:00,88.9,72.7,29.94,West,277,2.0,7.0,59,0.00,,,0.00,Wunderground v.1.15,2013-08-28 16:32:00,
2013-08-28 12:34:00,88.9,71.7,29.94,North,0,3.0,11.0,57,0.00,,,0.00,Wunderground v.1.15,2013-08-28 16:34:00,
2013-08-28 12:35:00,88.9,71.7,29.94,WNW,302,3.0,11.0,57,0.00,,,0.00,Wunderground v.1.15,2013-08-28 16:35:00,
2013-08-28 12:36:00,88.9,72.2,29.94,North,1,4.0,11.0,58,0.00,,,0.00,Wunderground v.1.15,2013-08-28 16:36:00,
2013-08-28 12:40:00,88.9,71.2,29.94,NW,308,5.0,5.0,56,0.00,,,0.00,Wunderground v.1.15,2013-08-28 16:40:00,
2013-08-28 12:42:00,89.1,70.8,29.94,West,271,6.0,6.0,55,0.00,,,0.00,Wunderground v.1.15,2013-08-28 16:42:00,
2013-08-28 12:43:00,89.1,71.4,29.94,WNW,294,6.0,8.0,56,0.00,,,0.00,Wunderground v.1.15,2013-08-28 16:43:00,
2013-08-28 12:48:00,89.1,71.4,29.94,WNW,285,6.0,14.0,56,0.00,,,0.00,Wunderground v.1.15,2013-08-28 16:48:00,
2013-08-28 12:51:00,89.3,71.0,29.94,West,277,6.0,6.0,55,0.00,,,0.00,Wunderground v.1.15,2013-08-28 16:51:00,
2013-08-28 12:52:00,89.3,71.0,29.94,North,359,6.0,6.0,55,0.00,,,0.00,Wunderground v.1.15,2013-08-28 16:52:00,
2013-08-28 12:55:00,89.3,71.0,29.94,WNW,287,6.0,6.0,55,0.00,,,0.00,Wunderground v.1.15,2013-08-28 16:55:00,
2013-08-28 12:56:00,89.3,71.5,29.94,WSW,241,6.0,7.0,56,0.00,,,0.00,Wunderground v.1.15,2013-08-28 16:56:00,
2013-08-28 12:57:00,89.3,71.0,29.94,West,267,6.0,7.0,55,0.00,,,0.00,Wunderground v.1.15,2013-08-28 16:57:00,
2013-08-28 12:58:00,89.5,70.7,29.94,NW,311,6.0,7.0,54,0.00,,,0.00,Wunderground v.1.15,2013-08-28 16:58:00,
2013-08-28 13:00:00,89.8,70.9,29.93,NW,305,6.0,6.0,54,0.00,,,0.00,Wunderground v.1.15,2013-08-28 17:00:00,
2013-08-28 13:02:00,89.8,72.0,29.93,WNW,288,6.0,7.0,56,0.00,,,0.00,Wunderground v.1.15,2013-08-28 17:02:00,
2013-08-28 13:05:00,90.0,71.1,29.93,NW,306,6.0,8.0,54,0.00,,,0.00,Wunderground v.1.15,2013-08-28 17:05:00,
2013-08-28 13:06:00,90.0,71.1,29.93,North,354,6.0,8.0,54,0.00,,,0.00,Wunderground v.1.15,2013-08-28 17:06:00,
2013-08-28 13:07:00,90.2,71.3,29.93,WSW,239,5.0,8.0,54,0.00,,,0.00,Wunderground v.1.15,2013-08-28 17:07:00,
2013-08-28 13:10:00,90.4,71.5,29.93,WNW,288,4.0,4.0,54,0.00,,,0.00,Wunderground v.1.15,2013-08-28 17:10:00,
2013-08-28 13:11:00,90.4,71.5,29.93,WNW,299,4.0,5.0,54,0.00,,,0.00,Wunderground v.1.15,2013-08-28 17:11:00,
2013-08-28 13:13:00,90.4,70.9,29.93,WNW,299,4.0,8.0,53,0.00,,,0.00,Wunderground v.1.15,2013-08-28 17:13:00,
2013-08-28 13:16:00,90.4,71.5,29.94,WNW,289,4.0,8.0,54,0.00,,,0.00,Wunderground v.1.15,2013-08-28 17:16:00,
2013-08-28 13:17:00,90.4,71.5,29.94,NNE,20,4.0,8.0,54,0.00,,,0.00,Wunderground v.1.15,2013-08-28 17:17:00,
2013-08-28 13:18:00,90.4,71.5,29.94,NW,320,4.0,8.0,54,0.00,,,0.00,Wunderground v.1.15,2013-08-28 17:18:00,
2013-08-28 13:19:00,90.4,71.5,29.94,SW,217,5.0,8.0,54,0.00,,,0.00,Wunderground v.1.15,2013-08-28 17:19:00,
2013-08-28 13:21:00,90.6,71.7,29.94,WSW,243,4.0,4.0,54,0.00,,,0.00,Wunderground v.1.15,2013-08-28 17:21:00,
2013-08-28 13:22:00,90.6,71.1,29.94,WSW,251,4.0,4.0,53,0.00,,,0.00,Wunderground v.1.15,2013-08-28 17:22:00,
2013-08-28 13:24:00,90.8,71.3,29.94,SW,216,4.0,6.0,53,0.00,,,0.00,Wunderground v.1.15,2013-08-28 17:24:00,
2013-08-28 13:26:00,91.2,71.7,29.94,North,357,3.0,7.0,53,0.00,,,0.00,Wunderground v.1.15,2013-08-28 17:26:00,
2013-08-28 13:27:00,91.2,71.1,29.94,West,277,4.0,7.0,52,0.00,,,0.00,Wunderground v.1.15,2013-08-28 17:27:00,
2013-08-28 13:28:00,91.2,71.1,29.94,NNW,328,3.0,8.0,52,0.00,,,0.00,Wunderground v.1.15,2013-08-28 17:28:00,
2013-08-28 13:29:00,91.2,71.1,29.93,SW,227,3.0,3.0,52,0.00,,,0.00,Wunderground v.1.15,2013-08-28 17:29:00,
2013-08-28 13:33:00,91.5,71.4,29.93,North,357,3.0,7.0,52,0.00,,,0.00,Wunderground v.1.15,2013-08-28 17:33:00,
2013-08-28 13:35:00,91.7,71.0,29.93,WSW,246,4.0,7.0,51,0.00,,,0.00,Wunderground v.1.15,2013-08-28 17:35:00,
2013-08-28 13:36:00,91.7,71.0,29.93,SSW,200,4.0,8.0,51,0.00,,,0.00,Wunderground v.1.15,2013-08-28 17:36:00,
2013-08-28 13:37:00,91.5,70.8,29.93,NW,306,5.0,8.0,51,0.00,,,0.00,Wunderground v.1.15,2013-08-28 17:37:00,
2013-08-28 13:38:00,91.5,70.8,29.93,NNW,339,5.0,8.0,51,0.00,,,0.00,Wunderground v.1.15,2013-08-28 17:38:00,
2013-08-28 13:41:00,91.5,70.8,29.93,SSW,195,5.0,5.0,51,0.00,,,0.00,Wunderground v.1.15,2013-08-28 17:41:00,
2013-08-28 13:42:00,91.7,71.0,29.93,SW,236,5.0,5.0,51,0.00,,,0.00,Wunderground v.1.15,2013-08-28 17:42:00,
2013-08-28 13:43:00,91.7,71.0,29.93,WSW,244,5.0,5.0,51,0.00,,,0.00,Wunderground v.1.15,2013-08-28 17:43:00,
2013-08-28 13:48:00,91.7,71.0,29.93,West,275,3.0,13.0,51,0.00,,,0.00,Wunderground v.1.15,2013-08-28 17:48:00,
2013-08-28 13:49:00,91.7,70.4,29.93,NNW,335,3.0,13.0,50,0.00,,,0.00,Wunderground v.1.15,2013-08-28 17:49:00,
2013-08-28 13:50:00,91.7,70.4,29.93,WNW,287,3.0,10.0,50,0.00,,,0.00,Wunderground v.1.15,2013-08-28 17:50:00,
2013-08-28 13:52:00,91.7,71.0,29.93,WSW,248,3.0,10.0,51,0.00,,,0.00,Wunderground v.1.15,2013-08-28 17:52:00,
2013-08-28 13:54:00,91.7,70.4,29.93,SSW,198,3.0,10.0,50,0.00,,,0.00,Wunderground v.1.15,2013-08-28 17:54:00,
2013-08-28 13:57:00,92.1,70.8,29.93,WSW,239,3.0,10.0,50,0.00,,,0.00,Wunderground v.1.15,2013-08-28 17:57:00,
2013-08-28 13:58:00,92.1,71.4,29.93,West,281,3.0,12.0,51,0.00,,,0.00,Wunderground v.1.15,2013-08-28 17:58:00,
2013-08-28 13:59:00,92.1,70.2,29.93,NW,312,3.0,12.0,49,0.00,,,0.00,Wunderground v.1.15,2013-08-28 17:59:00,
2013-08-28 14:01:00,92.1,70.2,29.94,SW,219,3.0,7.0,49,0.00,,,0.00,Wunderground v.1.15,2013-08-28 18:01:00,
2013-08-28 14:03:00,92.1,70.2,29.94,NW,326,4.0,11.0,49,0.00,,,0.00,Wunderground v.1.15,2013-08-28 18:03:00,
2013-08-28 14:04:00,91.9,70.6,29.94,WNW,291,5.0,11.0,50,0.00,,,0.00,Wunderground v.1.15,2013-08-28 18:04:00,
2013-08-28 14:07:00,91.9,70.6,29.94,WNW,294,6.0,13.0,50,0.00,,,0.00,Wunderground v.1.15,2013-08-28 18:07:00,
2013-08-28 14:09:00,91.9,70.6,29.94,WSW,250,5.0,13.0,50,0.00,,,0.00,Wunderground v.1.15,2013-08-28 18:09:00,
2013-08-28 14:10:00,92.1,71.4,29.94,WSW,250,5.0,5.0,51,0.00,,,0.00,Wunderground v.1.15,2013-08-28 18:10:00,
2013-08-28 14:11:00,92.1,70.2,29.94,NW,322,5.0,5.0,49,0.00,,,0.00,Wunderground v.1.15,2013-08-28 18:11:00,
2013-08-28 14:12:00,92.1,70.2,29.94,NW,305,5.0,5.0,49,0.00,,,0.00,Wunderground v.1.15,2013-08-28 18:12:00,
2013-08-28 14:15:00,92.3,71.0,29.93,WNW,285,4.0,5.0,50,0.00,,,0.00,Wunderground v.1.15,2013-08-28 18:15:00,
2013-08-28 14:17:00,92.3,71.0,29.93,West,272,3.0,13.0,50,0.00,,,0.00,Wunderground v.1.15,2013-08-28 18:17:00,
2013-08-28 14:18:00,92.3,71.0,29.93,WNW,294,3.0,13.0,50,0.00,,,0.00,Wunderground v.1.15,2013-08-28 18:18:00,
2013-08-28 14:21:00,92.3,70.4,29.93,WSW,258,4.0,11.0,49,0.00,,,0.00,Wunderground v.1.15,2013-08-28 18:21:00,
2013-08-28 14:22:00,92.3,71.0,29.93,WNW,291,4.0,11.0,50,0.00,,,0.00,Wunderground v.1.15,2013-08-28 18:22:00,
2013-08-28 14:24:00,92.6,71.2,29.93,NW,315,4.0,11.0,50,0.00,,,0.00,Wunderground v.1.15,2013-08-28 18:24:00,
2013-08-28 14:28:00,92.3,70.4,29.93,West,278,5.0,14.0,49,0.00,,,0.00,Wunderground v.1.15,2013-08-28 18:28:00,
2013-08-28 14:30:00,92.3,71.0,29.93,NNW,343,5.0,5.0,50,0.00,,,0.00,Wunderground v.1.15,2013-08-28 18:30:00,
2013-08-28 14:31:00,92.3,69.8,29.93,SW,216,5.0,5.0,48,0.00,,,0.00,Wunderground v.1.15,2013-08-28 18:31:00,
2013-08-28 14:35:00,92.6,70.6,29.93,WNW,284,5.0,13.0,49,0.00,,,0.00,Wunderground v.1.15,2013-08-28 18:35:00,
2013-08-28 14:37:00,92.8,71.4,29.93,WSW,256,5.0,13.0,50,0.00,,,0.00,Wunderground v.1.15,2013-08-28 18:37:00,
2013-08-28 14:38:00,92.8,70.8,29.93,NNW,335,4.0,13.0,49,0.00,,,0.00,Wunderground v.1.15,2013-08-28 18:38:00,
2013-08-28 14:41:00,93.0,70.4,29.93,WNW,287,4.0,7.0,48,0.00,,,0.00,Wunderground v.1.15,2013-08-28 18:41:00,
2013-08-28 14:42:00,93.0,70.4,29.93,NNW,342,4.0,10.0,48,0.00,,,0.00,Wunderground v.1.15,2013-08-28 18:42:00,
2013-08-28 14:43:00,93.0,70.4,29.93,NW,318,5.0,10.0,48,0.00,,,0.00,Wunderground v.1.15,2013-08-28 18:43:00,
2013-08-28 14:47:00,92.8,70.8,29.92,SSW,196,5.0,14.0,49,0.00,,,0.00,Wunderground v.1.15,2013-08-28 18:47:00,
2013-08-28 14:48:00,92.8,70.8,29.92,WNW,301,6.0,14.0,49,0.00,,,0.00,Wunderground v.1.15,2013-08-28 18:48:00,
2013-08-28 14:50:00,93.0,71.0,29.92,NW,323,6.0,6.0,49,0.00,,,0.00,Wunderground v.1.15,2013-08-28 18:50:00,
2013-08-28 14:51:00,93.0,71.0,29.92,NE,45,5.0,6.0,49,0.00,,,0.00,Wunderground v.1.15,2013-08-28 18:51:00,
2013-08-28 14:52:00,93.0,71.0,29.92,West,278,5.0,6.0,49,0.00,,,0.00,Wunderground v.1.15,2013-08-28 18:52:00,
2013-08-28 14:56:00,93.2,71.2,29.92,South,186,4.0,6.0,49,0.00,,,0.00,Wunderground v.1.15,2013-08-28 18:56:00,
2013-08-28 14:57:00,93.2,70.6,29.92,WSW,239,3.0,11.0,48,0.00,,,0.00,Wunderground v.1.15,2013-08-28 18:57:00,
2013-08-28 14:59:00,93.2,70.6,29.92,WSW,243,4.0,11.0,48,0.00,,,0.00,Wunderground v.1.15,2013-08-28 18:59:00,
2013-08-28 15:04:00,93.0,71.0,29.92,ENE,59,5.0,12.0,49,0.00,,,0.00,Wunderground v.1.15,2013-08-28 19:04:00,
2013-08-28 15:05:00,93.0,71.0,29.92,WNW,282,5.0,12.0,49,0.00,,,0.00,Wunderground v.1.15,2013-08-28 19:05:00,
2013-08-28 15:08:00,93.2,71.8,29.92,SSW,202,4.0,12.0,50,0.00,,,0.00,Wunderground v.1.15,2013-08-28 19:08:00,
2013-08-28 15:11:00,93.4,70.8,29.92,NNW,328,3.0,5.0,48,0.00,,,0.00,Wunderground v.1.15,2013-08-28 19:11:00,
2013-08-28 15:13:00,93.4,70.8,29.92,NW,306,3.0,5.0,48,0.00,,,0.00,Wunderground v.1.15,2013-08-28 19:13:00,
2013-08-28 15:15:00,93.4,71.4,29.92,WSW,241,3.0,5.0,49,0.00,,,0.00,Wunderground v.1.15,2013-08-28 19:15:00,
2013-08-28 15:17:00,93.4,71.4,29.92,South,184,4.0,5.0,49,0.00,,,0.00,Wunderground v.1.15,2013-08-28 19:17:00,
2013-08-28 15:20:00,93.4,72.0,29.92,SW,219,4.0,4.0,50,0.00,,,0.00,Wunderground v.1.15,2013-08-28 19:20:00,
2013-08-28 15:22:00,93.7,71.0,29.92,SW,227,4.0,7.0,48,0.00,,,0.00,Wunderground v.1.15,2013-08-28 19:22:00,
2013-08-28 15:23:00,93.7,71.0,29.92,WNW,295,3.0,7.0,48,0.00,,,0.00,Wunderground v.1.15,2013-08-28 19:23:00,
2013-08-28 15:24:00,93.7,71.0,29.92,WNW,301,4.0,7.0,48,0.00,,,0.00,Wunderground v.1.15,2013-08-28 19:24:00,
2013-08-28 15:26:00,93.9,71.8,29.92,SSW,209,3.0,10.0,49,0.00,,,0.00,Wunderground v.1.15,2013-08-28 19:26:00,
2013-08-28 15:28:00,93.7,71.7,29.92,NNW,343,4.0,10.0,49,0.00,,,0.00,Wunderground v.1.15,2013-08-28 19:28:00,
2013-08-28 15:31:00,93.7,71.0,29.92,SW,222,5.0,10.0,48,0.00,,,0.00,Wunderground v.1.15,2013-08-28 19:31:00,
2013-08-28 15:32:00,93.4,71.4,29.92,SW,229,5.0,10.0,49,0.00,,,0.00,Wunderground v.1.15,2013-08-28 19:32:00,
2013-08-28 15:33:00,93.4,71.4,29.92,NW,309,5.0,10.0,49,0.00,,,0.00,Wunderground v.1.15,2013-08-28 19:33:00,
2013-08-28 15:37:00,93.4,71.4,29.92,South,182,6.0,10.0,49,0.00,,,0.00,Wunderground v.1.15,2013-08-28 19:37:00,
2013-08-28 15:38:00,93.4,71.4,29.92,WNW,295,5.0,12.0,49,0.00,,,0.00,Wunderground v.1.15,2013-08-28 19:38:00,
2013-08-28 15:39:00,93.4,71.4,29.92,WNW,295,5.0,12.0,49,0.00,,,0.00,Wunderground v.1.15,2013-08-28 19:39:00,
2013-08-28 15:40:00,93.4,71.4,29.92,WSW,247,5.0,5.0,49,0.00,,,0.00,Wunderground v.1.15,2013-08-28 19:40:00,
2013-08-28 15:45:00,93.4,71.4,29.91,SSW,202,4.0,6.0,49,0.00,,,0.00,Wunderground v.1.15,2013-08-28 19:45:00,
2013-08-28 15:48:00,93.7,71.7,29.91,West,270,3.0,6.0,49,0.00,,,0.00,Wunderground v.1.15,2013-08-28 19:48:00,
2013-08-28 15:50:00,93.9,71.8,29.91,NW,326,3.0,6.0,49,0.00,,,0.00,Wunderground v.1.15,2013-08-28 19:50:00,
2013-08-28 15:53:00,94.1,72.6,29.91,NNW,346,3.0,6.0,50,0.00,,,0.00,Wunderground v.1.15,2013-08-28 19:53:00,
2013-08-28 15:54:00,94.1,71.4,29.91,SSW,195,3.0,14.0,48,0.00,,,0.00,Wunderground v.1.15,2013-08-28 19:54:00,
2013-08-28 15:57:00,93.9,71.8,29.91,SSW,202,4.0,14.0,49,0.00,,,0.00,Wunderground v.1.15,2013-08-28 19:57:00,
2013-08-28 15:59:00,93.7,71.7,29.91,WSW,254,5.0,14.0,49,0.00,,,0.00,Wunderground v.1.15,2013-08-28 19:59:00,
2013-08-28 16:00:00,93.7,71.7,29.91,WSW,247,5.0,5.0,49,0.00,,,0.00,Wunderground v.1.15,2013-08-28 20:00:00,
2013-08-28 16:03:00,93.7,71.0,29.91,WSW,241,4.0,5.0,48,0.00,,,0.00,Wunderground v.1.15,2013-08-28 20:03:00,
2013-08-28 16:06:00,93.9,72.4,29.91,SW,230,3.0,6.0,50,0.00,,,0.00,Wunderground v.1.15,2013-08-28 20:06:00,
2013-08-28 16:08:00,93.9,71.8,29.91,West,271,3.0,6.0,49,0.00,,,0.00,Wunderground v.1.15,2013-08-28 20:08:00,
2013-08-28 16:09:00,93.9,71.8,29.91,WNW,301,3.0,6.0,49,0.00,,,0.00,Wunderground v.1.15,2013-08-28 20:09:00,
2013-08-28 16:10:00,93.9,71.2,29.91,West,281,3.0,7.0,48,0.00,,,0.00,Wunderground v.1.15,2013-08-28 20:10:00,
2013-08-28 16:12:00,93.9,71.2,29.91,WNW,289,4.0,7.0,48,0.00,,,0.00,Wunderground v.1.15,2013-08-28 20:12:00,
2013-08-28 16:13:00,93.9,71.8,29.91,SSW,205,4.0,7.0,49,0.00,,,0.00,Wunderground v.1.15,2013-08-28 20:13:00,
2013-08-28 16:14:00,93.9,71.8,29.91,NNW,328,4.0,7.0,49,0.00,,,0.00,Wunderground v.1.15,2013-08-28 20:14:00,
2013-08-28 16:15:00,93.9,71.8,29.91,North,1,3.0,7.0,49,0.00,,,0.00,Wunderground v.1.15,2013-08-28 20:15:00,
2013-08-28 16:17:00,94.1,71.4,29.91,WNW,299,2.0,7.0,48,0.00,,,0.00,Wunderground v.1.15,2013-08-28 20:17:00,
2013-08-28 16:18:00,94.1,71.4,29.91,NW,316,2.0,7.0,48,0.00,,,0.00,Wunderground v.1.15,2013-08-28 20:18:00,
2013-08-28 16:20:00,94.1,71.4,29.91,NNW,329,3.0,3.0,48,0.00,,,0.00,Wunderground v.1.15,2013-08-28 20:20:00,
2013-08-28 16:23:00,93.9,71.2,29.91,NNW,339,2.0,6.0,48,0.00,,,0.00,Wunderground v.1.15,2013-08-28 20:23:00,
2013-08-28 16:25:00,93.9,71.8,29.91,NW,320,3.0,6.0,49,0.00,,,0.00,Wunderground v.1.15,2013-08-28 20:25:00,
2013-08-28 16:30:00,93.9,71.2,29.91,NW,326,3.0,3.0,48,0.00,,,0.00,Wunderground v.1.15,2013-08-28 20:30:00,
2013-08-28 16:32:00,93.9,71.2,29.91,WNW,295,3.0,6.0,48,0.00,,,0.00,Wunderground v.1.15,2013-08-28 20:32:00,
2013-08-28 16:33:00,93.9,71.2,29.91,NNW,336,4.0,8.0,48,0.00,,,0.00,Wunderground v.1.15,2013-08-28 20:33:00,
2013-08-28 16:35:00,93.7,71.7,29.91,NW,318,3.0,8.0,49,0.00,,,0.00,Wunderground v.1.15,2013-08-28 20:35:00,
2013-08-28 16:36:00,93.7,71.7,29.91,West,278,3.0,8.0,49,0.00,,,0.00,Wunderground v.1.15,2013-08-28 20:36:00,
2013-08-28 16:38:00,93.7,71.0,29.91,NW,308,3.0,8.0,48,0.00,,,0.00,Wunderground v.1.15,2013-08-28 20:38:00,
2013-08-28 16:40:00,93.7,71.0,29.91,NW,309,3.0,3.0,48,0.00,,,0.00,Wunderground v.1.15,2013-08-28 20:40:00,
2013-08-28 16:42:00,93.7,71.0,29.91,NNW,339,3.0,3.0,48,0.00,,,0.00,Wunderground v.1.15,2013-08-28 20:42:00,
2013-08-28 16:44:00,93.7,71.0,29.91,NW,322,3.0,7.0,48,0.00,,,0.00,Wunderground v.1.15,2013-08-28 20:44:00,
2013-08-28 16:45:00,93.7,71.0,29.91,NW,306,3.0,7.0,48,0.00,,,0.00,Wunderground v.1.15,2013-08-28 20:45:00,
2013-08-28 16:48:00,93.7,71.0,29.91,West,272,4.0,7.0,48,0.00,,,0.00,Wunderground v.1.15,2013-08-28 20:48:00,
2013-08-28 16:50:00,93.7,71.7,29.91,North,0,3.0,3.0,49,0.00,,,0.00,Wunderground v.1.15,2013-08-28 20:50:00,
2013-08-28 16:51:00,93.9,71.2,29.91,NNW,328,3.0,3.0,48,0.00,,,0.00,Wunderground v.1.15,2013-08-28 20:51:00,
2013-08-28 16:52:00,93.9,71.2,29.91,North,353,3.0,9.0,48,0.00,,,0.00,Wunderground v.1.15,2013-08-28 20:52:00,
2013-08-28 16:55:00,93.9,71.8,29.91,SSW,195,3.0,9.0,49,0.00,,,0.00,Wunderground v.1.15,2013-08-28 20:55:00,
2013-08-28 16:56:00,93.9,71.2,29.91,WSW,256,3.0,9.0,48,0.00,,,0.00,Wunderground v.1.15,2013-08-28 20:56:00,
2013-08-28 16:57:00,93.9,71.2,29.91,NW,311,3.0,9.0,48,0.00,,,0.00,Wunderground v.1.15,2013-08-28 20:57:00,
2013-08-28 16:58:00,93.9,71.2,29.91,West,271,3.0,9.0,48,0.00,,,0.00,Wunderground v.1.15,2013-08-28 20:58:00,
2013-08-28 17:02:00,93.9,70.6,29.90,West,281,4.0,8.0,47,0.00,,,0.00,Wunderground v.1.15,2013-08-28 21:02:00,
2013-08-28 17:04:00,94.1,70.8,29.90,North,349,3.0,8.0,47,0.00,,,0.00,Wunderground v.1.15,2013-08-28 21:04:00,
2013-08-28 17:05:00,94.1,70.8,29.90,NNW,333,4.0,8.0,47,0.00,,,0.00,Wunderground v.1.15,2013-08-28 21:05:00,
2013-08-28 17:08:00,93.9,71.2,29.90,SW,233,4.0,8.0,48,0.00,,,0.00,Wunderground v.1.15,2013-08-28 21:08:00,
2013-08-28 17:10:00,93.7,71.7,29.90,West,261,4.0,4.0,49,0.00,,,0.00,Wunderground v.1.15,2013-08-28 21:10:00,
2013-08-28 17:11:00,93.7,71.7,29.90,South,186,3.0,6.0,49,0.00,,,0.00,Wunderground v.1.15,2013-08-28 21:11:00,
2013-08-28 17:13:00,93.7,71.7,29.90,WNW,291,4.0,6.0,49,0.00,,,0.00,Wunderground v.1.15,2013-08-28 21:13:00,
2013-08-28 17:15:00,93.7,72.3,29.90,West,260,4.0,7.0,50,0.00,,,0.00,Wunderground v.1.15,2013-08-28 21:15:00,
2013-08-28 17:16:00,93.7,72.3,29.90,West,260,3.0,7.0,50,0.00,,,0.00,Wunderground v.1.15,2013-08-28 21:16:00,
2013-08-28 17:17:00,93.9,72.4,29.90,NNW,339,3.0,7.0,50,0.00,,,0.00,Wunderground v.1.15,2013-08-28 21:17:00,
2013-08-28 17:18:00,93.9,71.8,29.90,SSW,213,3.0,7.0,49,0.00,,,0.00,Wunderground v.1.15,2013-08-28 21:18:00,
2013-08-28 17:20:00,93.9,71.8,29.90,North,0,4.0,4.0,49,0.00,,,0.00,Wunderground v.1.15,2013-08-28 21:20:00,
2013-08-28 17:21:00,94.1,72.0,29.90,SW,223,4.0,4.0,49,0.00,,,0.00,Wunderground v.1.15,2013-08-28 21:21:00,
2013-08-28 17:23:00,93.9,71.2,29.90,SSW,208,4.0,7.0,48,0.00,,,0.00,Wunderground v.1.15,2013-08-28 21:23:00,
2013-08-28 17:24:00,93.7,71.0,29.90,SW,220,4.0,7.0,48,0.00,,,0.00,Wunderground v.1.15,2013-08-28 21:24:00,
2013-08-28 17:29:00,93.4,72.0,29.90,WSW,239,5.0,8.0,50,0.00,,,0.00,Wunderground v.1.15,2013-08-28 21:29:00,
2013-08-28 17:30:00,93.4,71.4,29.90,West,280,5.0,5.0,49,0.00,,,0.00,Wunderground v.1.15,2013-08-28 21:30:00,
2013-08-28 17:32:00,93.4,71.4,29.90,SW,227,5.0,6.0,49,0.00,,,0.00,Wunderground v.1.15,2013-08-28 21:32:00,
2013-08-28 17:33:00,93.4,71.4,29.90,WNW,291,4.0,6.0,49,0.00,,,0.00,Wunderground v.1.15,2013-08-28 21:33:00,
2013-08-28 17:35:00,93.4,72.0,29.90,West,271,3.0,6.0,50,0.00,,,0.00,Wunderground v.1.15,2013-08-28 21:35:00,
2013-08-28 17:36:00,93.4,71.4,29.90,West,280,3.0,6.0,49,0.00,,,0.00,Wunderground v.1.15,2013-08-28 21:36:00,
2013-08-28 17:37:00,93.4,72.0,29.90,WSW,243,3.0,6.0,50,0.00,,,0.00,Wunderground v.1.15,2013-08-28 21:37:00,
2013-08-28 17:38:00,93.4,71.4,29.90,WNW,284,2.0,6.0,49,0.00,,,0.00,Wunderground v.1.15,2013-08-28 21:38:00,
2013-08-28 17:41:00,93.4,71.4,29.90,SSW,212,2.0,3.0,49,0.00,,,0.00,Wunderground v.1.15,2013-08-28 21:41:00,
2013-08-28 17:42:00,93.4,72.0,29.90,SSW,212,2.0,10.0,50,0.00,,,0.00,Wunderground v.1.15,2013-08-28 21:42:00,
2013-08-28 17:43:00,93.4,72.0,29.90,SSW,202,2.0,10.0,50,0.00,,,0.00,Wunderground v.1.15,2013-08-28 21:43:00,
2013-08-28 17:45:00,93.4,72.0,29.90,SW,226,3.0,10.0,50,0.00,,,0.00,Wunderground v.1.15,2013-08-28 21:45:00,
2013-08-28 17:47:00,93.4,72.0,29.90,WSW,251,3.0,10.0,50,0.00,,,0.00,Wunderground v.1.15,2013-08-28 21:47:00,
2013-08-28 17:50:00,93.4,70.8,29.90,NNW,342,2.0,2.0,48,0.00,,,0.00,Wunderground v.1.15,2013-08-28 21:50:00,
2013-08-28 17:52:00,93.7,71.7,29.90,NNW,339,2.0,3.0,49,0.00,,,0.00,Wunderground v.1.15,2013-08-28 21:52:00,
2013-08-28 17:53:00,93.7,71.7,29.90,WSW,256,2.0,3.0,49,0.00,,,0.00,Wunderground v.1.15,2013-08-28 21:53:00,
2013-08-28 17:54:00,93.4,71.4,29.90,NW,326,2.0,3.0,49,0.00,,,0.00,Wunderground v.1.15,2013-08-28 21:54:00,
2013-08-28 17:57:00,93.4,71.4,29.90,SSW,196,3.0,9.0,49,0.00,,,0.00,Wunderground v.1.15,2013-08-28 21:57:00,
2013-08-28 17:58:00,93.2,71.8,29.90,West,267,3.0,9.0,50,0.00,,,0.00,Wunderground v.1.15,2013-08-28 21:58:00,
2013-08-28 17:59:00,93.2,71.8,29.90,WSW,256,3.0,11.0,50,0.00,,,0.00,Wunderground v.1.15,2013-08-28 21:59:00,
2013-08-28 18:01:00,93.2,71.8,29.90,West,280,3.0,3.0,50,0.00,,,0.00,Wunderground v.1.15,2013-08-28 22:01:00,
2013-08-28 18:03:00,93.0,71.6,29.90,SSW,212,3.0,8.0,50,0.00,,,0.00,Wunderground v.1.15,2013-08-28 22:03:00,
2013-08-28 18:05:00,93.0,71.6,29.90,WSW,258,3.0,8.0,50,0.00,,,0.00,Wunderground v.1.15,2013-08-28 22:05:00,
2013-08-28 18:08:00,93.0,72.2,29.90,West,275,4.0,8.0,51,0.00,,,0.00,Wunderground v.1.15,2013-08-28 22:08:00,
2013-08-28 18:10:00,93.0,72.2,29.90,WSW,250,3.0,7.0,51,0.00,,,0.00,Wunderground v.1.15,2013-08-28 22:10:00,
2013-08-28 18:13:00,92.8,71.4,29.90,West,267,3.0,7.0,50,0.00,,,0.00,Wunderground v.1.15,2013-08-28 22:13:00,
2013-08-28 18:14:00,92.6,71.2,29.90,South,188,4.0,9.0,50,0.00,,,0.00,Wunderground v.1.15,2013-08-28 22:14:00,
2013-08-28 18:16:00,92.6,71.8,29.90,WSW,244,4.0,9.0,51,0.00,,,0.00,Wunderground v.1.15,2013-08-28 22:16:00,
2013-08-28 18:17:00,92.6,71.8,29.90,NNW,333,4.0,9.0,51,0.00,,,0.00,Wunderground v.1.15,2013-08-28 22:17:00,
2013-08-28 18:18:00,92.3,71.6,29.90,SW,234,4.0,9.0,51,0.00,,,0.00,Wunderground v.1.15,2013-08-28 22:18:00,
2013-08-28 18:19:00,92.3,71.6,29.90,SW,219,5.0,9.0,51,0.00,,,0.00,Wunderground v.1.15,2013-08-28 22:19:00,
2013-08-28 18:23:00,92.1,71.4,29.90,WSW,253,4.0,7.0,51,0.00,,,0.00,Wunderground v.1.15,2013-08-28 22:23:00,
2013-08-28 18:24:00,91.9,71.2,29.90,SW,215,4.0,10.0,51,0.00,,,0.00,Wunderground v.1.15,2013-08-28 22:24:00,
2013-08-28 18:27:00,91.9,71.8,29.90,SW,216,4.0,10.0,52,0.00,,,0.00,Wunderground v.1.15,2013-08-28 22:27:00,
2013-08-28 18:28:00,91.9,71.8,29.90,West,275,4.0,10.0,52,0.00,,,0.00,Wunderground v.1.15,2013-08-28 22:28:00,
2013-08-28 18:29:00,91.9,71.8,29.90,North,357,3.0,10.0,52,0.00,,,0.00,Wunderground v.1.15,2013-08-28 22:29:00,
2013-08-28 18:30:00,91.7,71.6,29.90,SSE,164,3.0,6.0,52,0.00,,,0.00,Wunderground v.1.15,2013-08-28 22:30:00,
2013-08-28 18:32:00,91.7,71.6,29.90,WNW,291,4.0,6.0,52,0.00,,,0.00,Wunderground v.1.15,2013-08-28 22:32:00,
2013-08-28 18:33:00,91.7,71.6,29.90,SW,234,3.0,6.0,52,0.00,,,0.00,Wunderground v.1.15,2013-08-28 22:33:00,
2013-08-28 18:35:00,91.7,71.6,29.90,SW,215,3.0,6.0,52,0.00,,,0.00,Wunderground v.1.15,2013-08-28 22:35:00,
2013-08-28 18:36:00,91.7,72.1,29.90,WNW,287,2.0,6.0,53,0.00,,,0.00,Wunderground v.1.15,2013-08-28 22:36:00,
2013-08-28 18:39:00,91.5,71.4,29.90,WNW,284,2.0,6.0,52,0.00,,,0.00,Wunderground v.1.15,2013-08-28 22:39:00,
2013-08-28 18:40:00,91.7,72.1,29.90,SW,236,2.0,2.0,53,0.00,,,0.00,Wunderground v.1.15,2013-08-28 22:40:00,
2013-08-28 18:41:00,91.5,72.0,29.90,SW,234,2.0,2.0,53,0.00,,,0.00,Wunderground v.1.15,2013-08-28 22:41:00,
2013-08-28 18:42:00,91.5,72.0,29.90,West,278,2.0,2.0,53,0.00,,,0.00,Wunderground v.1.15,2013-08-28 22:42:00,
2013-08-28 18:44:00,91.7,72.1,29.90,WNW,287,1.0,2.0,53,0.00,,,0.00,Wunderground v.1.15,2013-08-28 22:44:00,
2013-08-28 18:47:00,91.5,72.0,29.90,NNW,343,2.0,8.0,53,0.00,,,0.00,Wunderground v.1.15,2013-08-28 22:47:00,
2013-08-28 18:48:00,91.5,72.0,29.90,SSW,200,2.0,8.0,53,0.00,,,0.00,Wunderground v.1.15,2013-08-28 22:48:00,
2013-08-28 18:50:00,91.5,72.5,29.90,SSW,206,2.0,3.0,54,0.00,,,0.00,Wunderground v.1.15,2013-08-28 22:50:00,
2013-08-28 18:51:00,91.2,72.2,29.90,WSW,240,2.0,3.0,54,0.00,,,0.00,Wunderground v.1.15,2013-08-28 22:51:00,
2013-08-28 18:53:00,91.2,72.2,29.90,WNW,301,2.0,3.0,54,0.00,,,0.00,Wunderground v.1.15,2013-08-28 22:53:00,
2013-08-28 18:55:00,91.2,72.2,29.90,West,267,3.0,9.0,54,0.00,,,0.00,Wunderground v.1.15,2013-08-28 22:55:00,
2013-08-28 18:56:00,91.2,72.2,29.90,SW,222,3.0,9.0,54,0.00,,,0.00,Wunderground v.1.15,2013-08-28 22:56:00,
2013-08-28 18:59:00,91.0,72.0,29.90,WSW,237,2.0,9.0,54,0.00,,,0.00,Wunderground v.1.15,2013-08-28 22:59:00,
2013-08-28 19:00:00,90.8,71.9,29.90,WSW,248,2.0,2.0,54,0.00,,,0.00,Wunderground v.1.15,2013-08-28 23:00:00,
2013-08-28 19:02:00,90.8,71.9,29.90,WSW,250,3.0,3.0,54,0.00,,,0.00,Wunderground v.1.15,2013-08-28 23:02:00,
2013-08-28 19:04:00,90.8,71.9,29.90,SW,224,3.0,6.0,54,0.00,,,0.00,Wunderground v.1.15,2013-08-28 23:04:00,
2013-08-28 19:06:00,90.8,72.4,29.90,WNW,285,2.0,6.0,55,0.00,,,0.00,Wunderground v.1.15,2013-08-28 23:06:00,
2013-08-28 19:11:00,90.8,72.4,29.90,WNW,288,2.0,6.0,55,0.00,,,0.00,Wunderground v.1.15,2013-08-28 23:11:00,
2013-08-28 19:14:00,90.8,72.4,29.90,WSW,257,2.0,6.0,55,0.00,,,0.00,Wunderground v.1.15,2013-08-28 23:14:00,
2013-08-28 19:15:00,90.8,72.4,29.90,WSW,258,2.0,6.0,55,0.00,,,0.00,Wunderground v.1.15,2013-08-28 23:15:00,
2013-08-28 19:18:00,90.6,72.2,29.90,SSW,206,3.0,6.0,55,0.00,,,0.00,Wunderground v.1.15,2013-08-28 23:18:00,
2013-08-28 19:20:00,90.6,72.2,29.90,NW,309,3.0,3.0,55,0.00,,,0.00,Wunderground v.1.15,2013-08-28 23:20:00,
2013-08-28 19:21:00,90.6,72.2,29.90,NW,326,3.0,3.0,55,0.00,,,0.00,Wunderground v.1.15,2013-08-28 23:21:00,
2013-08-28 19:22:00,90.6,72.8,29.90,SSW,213,2.0,5.0,56,0.00,,,0.00,Wunderground v.1.15,2013-08-28 23:22:00,
2013-08-28 19:23:00,90.4,72.6,29.90,West,265,2.0,5.0,56,0.00,,,0.00,Wunderground v.1.15,2013-08-28 23:23:00,
2013-08-28 19:24:00,90.4,72.6,29.90,SW,226,2.0,5.0,56,0.00,,,0.00,Wunderground v.1.15,2013-08-28 23:24:00,
2013-08-28 19:26:00,90.4,72.6,29.90,West,271,2.0,5.0,56,0.00,,,0.00,Wunderground v.1.15,2013-08-28 23:26:00,
2013-08-28 19:27:00,90.4,72.6,29.90,West,265,1.0,5.0,56,0.00,,,0.00,Wunderground v.1.15,2013-08-28 23:27:00,
2013-08-28 19:28:00,90.4,72.6,29.90,SW,234,1.0,5.0,56,0.00,,,0.00,Wunderground v.1.15,2013-08-28 23:28:00,
2013-08-28 19:31:00,90.2,72.4,29.90,West,281,1.0,3.0,56,0.00,,,0.00,Wunderground v.1.15,2013-08-28 23:31:00,
2013-08-28 19:32:00,90.0,72.2,29.90,West,263,1.0,3.0,56,0.00,,,0.00,Wunderground v.1.15,2013-08-28 23:32:00,
2013-08-28 19:36:00,90.0,72.7,29.90,West,267,1.0,3.0,57,0.00,,,0.00,Wunderground v.1.15,2013-08-28 23:36:00,
2013-08-28 19:37:00,90.0,72.7,29.90,West,267,1.0,3.0,57,0.00,,,0.00,Wunderground v.1.15,2013-08-28 23:37:00,
2013-08-28 19:41:00,89.5,72.3,29.90,West,280,1.0,1.0,57,0.00,,,0.00,Wunderground v.1.15,2013-08-28 23:41:00,
2013-08-28 19:42:00,89.5,72.8,29.90,WSW,239,1.0,1.0,58,0.00,,,0.00,Wunderground v.1.15,2013-08-28 23:42:00,
2013-08-28 19:43:00,89.5,72.8,29.90,WSW,247,1.0,1.0,58,0.00,,,0.00,Wunderground v.1.15,2013-08-28 23:43:00,
2013-08-28 19:46:00,89.3,72.6,29.90,West,278,1.0,2.0,58,0.00,,,0.00,Wunderground v.1.15,2013-08-28 23:46:00,
2013-08-28 19:47:00,89.1,72.4,29.90,West,278,1.0,2.0,58,0.00,,,0.00,Wunderground v.1.15,2013-08-28 23:47:00,
2013-08-28 19:49:00,89.1,72.4,29.90,WNW,295,1.0,2.0,58,0.00,,,0.00,Wunderground v.1.15,2013-08-28 23:49:00,
2013-08-28 19:50:00,89.1,72.9,29.90,WSW,248,1.0,1.0,59,0.00,,,0.00,Wunderground v.1.15,2013-08-28 23:50:00,
2013-08-28 19:52:00,88.9,72.7,29.90,WSW,257,1.0,4.0,59,0.00,,,0.00,Wunderground v.1.15,2013-08-28 23:52:00,
2013-08-28 19:53:00,88.9,72.7,29.90,WNW,292,1.0,4.0,59,0.00,,,0.00,Wunderground v.1.15,2013-08-28 23:53:00,
2013-08-28 19:55:00,88.7,72.5,29.90,WNW,296,1.0,4.0,59,0.00,,,0.00,Wunderground v.1.15,2013-08-28 23:55:00,
2013-08-28 19:58:00,88.7,73.0,29.90,WNW,301,1.0,4.0,60,0.00,,,0.00,Wunderground v.1.15,2013-08-28 23:58:00,
2013-08-28 19:59:00,88.5,72.8,29.90,WSW,244,1.0,4.0,60,0.00,,,0.00,Wunderground v.1.15,2013-08-28 23:59:00,
2013-08-28 20:00:00,88.5,72.8,29.90,WSW,247,1.0,1.0,60,0.00,,,0.00,Wunderground v.1.15,2013-08-29 00:00:00,
2013-08-28 20:02:00,88.3,72.7,29.90,WSW,247,0.0,1.0,60,0.00,,,0.00,Wunderground v.1.15,2013-08-29 00:02:00,
2013-08-28 20:05:00,88.1,72.5,29.90,West,270,0.0,1.0,60,0.00,,,0.00,Wunderground v.1.15,2013-08-29 00:05:00,
2013-08-28 20:06:00,88.1,72.5,29.90,West,268,0.0,1.0,60,0.00,,,0.00,Wunderground v.1.15,2013-08-29 00:06:00,
2013-08-28 20:07:00,88.1,73.0,29.90,West,268,0.0,1.0,61,0.00,,,0.00,Wunderground v.1.15,2013-08-29 00:07:00,
2013-08-28 20:10:00,87.9,72.8,29.90,WSW,241,0.0,0.0,61,0.00,,,0.00,Wunderground v.1.15,2013-08-29 00:10:00,
2013-08-28 20:15:00,87.7,72.6,29.90,WNW,289,0.0,0.0,61,0.00,,,0.00,Wunderground v.1.15,2013-08-29 00:15:00,
2013-08-28 20:16:00,87.7,72.6,29.90,SW,229,0.0,1.0,61,0.00,,,0.00,Wunderground v.1.15,2013-08-29 00:16:00,
2013-08-28 20:17:00,87.5,72.4,29.90,SW,229,0.0,1.0,61,0.00,,,0.00,Wunderground v.1.15,2013-08-29 00:17:00,
2013-08-28 20:21:00,87.2,72.6,29.90,West,271,0.0,0.0,62,0.00,,,0.00,Wunderground v.1.15,2013-08-29 00:21:00,
2013-08-28 20:23:00,87.2,72.6,29.90,West,270,0.0,0.0,62,0.00,,,0.00,Wunderground v.1.15,2013-08-29 00:23:00,
2013-08-28 20:24:00,87.0,72.4,29.90,West,272,0.0,0.0,62,0.00,,,0.00,Wunderground v.1.15,2013-08-29 00:24:00,
2013-08-28 20:26:00,87.0,72.4,29.90,West,272,0.0,0.0,62,0.00,,,0.00,Wunderground v.1.15,2013-08-29 00:26:00,
2013-08-28 20:27:00,87.0,72.4,29.90,West,274,0.0,0.0,62,0.00,,,0.00,Wunderground v.1.15,2013-08-29 00:27:00,
2013-08-28 20:33:00,86.6,72.5,29.91,West,275,0.0,0.0,63,0.00,,,0.00,Wunderground v.1.15,2013-08-29 00:33:00,
2013-08-28 20:34:00,86.6,72.5,29.91,West,278,0.0,0.0,63,0.00,,,0.00,Wunderground v.1.15,2013-08-29 00:34:00,
2013-08-28 20:36:00,86.6,72.5,29.91,West,278,0.0,0.0,63,0.00,,,0.00,Wunderground v.1.15,2013-08-29 00:36:00,
2013-08-28 20:40:00,86.2,72.6,29.91,West,277,0.0,0.0,64,0.00,,,0.00,Wunderground v.1.15,2013-08-29 00:40:00,
2013-08-28 20:41:00,86.2,72.6,29.91,West,277,0.0,0.0,64,0.00,,,0.00,Wunderground v.1.15,2013-08-29 00:41:00,
2013-08-28 20:42:00,86.2,72.6,29.91,West,277,0.0,0.0,64,0.00,,,0.00,Wunderground v.1.15,2013-08-29 00:42:00,
2013-08-28 20:45:00,86.0,72.4,29.91,West,278,0.0,0.0,64,0.00,,,0.00,Wunderground v.1.15,2013-08-29 00:45:00,
2013-08-28 20:47:00,86.0,72.4,29.91,West,278,0.0,0.0,64,0.00,,,0.00,Wunderground v.1.15,2013-08-29 00:47:00,
2013-08-28 20:49:00,86.0,72.4,29.91,West,278,0.0,0.0,64,0.00,,,0.00,Wunderground v.1.15,2013-08-29 00:49:00,
2013-08-28 20:52:00,85.8,72.2,29.91,West,278,0.0,0.0,64,0.00,,,0.00,Wunderground v.1.15,2013-08-29 00:52:00,
2013-08-28 20:53:00,85.8,72.7,29.91,West,278,0.0,0.0,65,0.00,,,0.00,Wunderground v.1.15,2013-08-29 00:53:00,
2013-08-28 20:57:00,85.6,72.9,29.91,West,278,0.0,0.0,66,0.00,,,0.00,Wunderground v.1.15,2013-08-29 00:57:00,
2013-08-28 21:00:00,85.2,72.6,29.91,West,278,0.0,0.0,66,0.00,,,0.00,Wunderground v.1.15,2013-08-29 01:00:00,
2013-08-28 21:01:00,85.2,72.6,29.91,West,278,0.0,0.0,66,0.00,,,0.00,Wunderground v.1.15,2013-08-29 01:01:00,
2013-08-28 21:03:00,85.2,72.6,29.91,West,278,0.0,0.0,66,0.00,,,0.00,Wunderground v.1.15,2013-08-29 01:03:00,
2013-08-28 21:06:00,85.0,72.8,29.91,West,278,0.0,0.0,67,0.00,,,0.00,Wunderground v.1.15,2013-08-29 01:06:00,
2013-08-28 21:07:00,85.0,72.8,29.91,West,278,0.0,0.0,67,0.00,,,0.00,Wunderground v.1.15,2013-08-29 01:07:00,
2013-08-28 21:08:00,84.8,72.6,29.91,West,278,0.0,0.0,67,0.00,,,0.00,Wunderground v.1.15,2013-08-29 01:08:00,
2013-08-28 21:09:00,84.8,72.6,29.91,West,281,0.0,0.0,67,0.00,,,0.00,Wunderground v.1.15,2013-08-29 01:09:00,
2013-08-28 21:10:00,84.8,72.6,29.91,West,281,0.0,0.0,67,0.00,,,0.00,Wunderground v.1.15,2013-08-29 01:10:00,
2013-08-28 21:11:00,84.6,72.9,29.91,West,281,0.0,0.0,68,0.00,,,0.00,Wunderground v.1.15,2013-08-29 01:11:00,
2013-08-28 21:12:00,84.6,72.4,29.91,West,272,0.0,0.0,67,0.00,,,0.00,Wunderground v.1.15,2013-08-29 01:12:00,
2013-08-28 21:16:00,84.5,72.8,29.91,WNW,291,0.0,0.0,68,0.00,,,0.00,Wunderground v.1.15,2013-08-29 01:16:00,
2013-08-28 21:17:00,84.5,72.8,29.91,WNW,291,0.0,0.0,68,0.00,,,0.00,Wunderground v.1.15,2013-08-29 01:17:00,
2013-08-28 21:18:00,84.3,72.6,29.91,WNW,291,0.0,0.0,68,0.00,,,0.00,Wunderground v.1.15,2013-08-29 01:18:00,
2013-08-28 21:21:00,84.1,72.4,29.91,West,278,0.0,0.0,68,0.00,,,0.00,Wunderground v.1.15,2013-08-29 01:21:00,
2013-08-28 21:24:00,84.1,72.4,29.91,West,281,0.0,0.0,68,0.00,,,0.00,Wunderground v.1.15,2013-08-29 01:24:00,
2013-08-28 21:26:00,83.9,72.2,29.91,West,281,0.0,0.0,68,0.00,,,0.00,Wunderground v.1.15,2013-08-29 01:26:00,
2013-08-28 21:27:00,83.9,72.2,29.91,West,281,0.0,0.0,68,0.00,,,0.00,Wunderground v.1.15,2013-08-29 01:27:00,
2013-08-28 21:29:00,83.9,72.2,29.91,WNW,289,0.0,0.0,68,0.00,,,0.00,Wunderground v.1.15,2013-08-29 01:29:00,
2013-08-28 21:30:00,83.9,72.2,29.92,WNW,294,0.0,0.0,68,0.00,,,0.00,Wunderground v.1.15,2013-08-29 01:30:00,
2013-08-28 21:32:00,83.7,72.0,29.92,West,278,0.0,1.0,68,0.00,,,0.00,Wunderground v.1.15,2013-08-29 01:32:00,
2013-08-28 21:37:00,83.7,72.0,29.92,NW,311,0.0,1.0,68,0.00,,,0.00,Wunderground v.1.15,2013-08-29 01:37:00,
2013-08-28 21:41:00,83.5,72.3,29.92,NW,308,0.0,0.0,69,0.00,,,0.00,Wunderground v.1.15,2013-08-29 01:41:00,
2013-08-28 21:43:00,83.5,71.8,29.92,NW,304,0.0,0.0,68,0.00,,,0.00,Wunderground v.1.15,2013-08-29 01:43:00,
2013-08-28 21:44:00,83.5,71.8,29.92,WNW,299,0.0,0.0,68,0.00,,,0.00,Wunderground v.1.15,2013-08-29 01:44:00,
2013-08-28 21:48:00,83.5,72.3,29.92,WNW,289,0.0,0.0,69,0.00,,,0.00,Wunderground v.1.15,2013-08-29 01:48:00,
2013-08-28 21:49:00,83.5,72.3,29.92,WNW,289,0.0,0.0,69,0.00,,,0.00,Wunderground v.1.15,2013-08-29 01:49:00,
2013-08-28 21:51:00,83.3,72.1,29.92,WNW,284,0.0,0.0,69,0.00,,,0.00,Wunderground v.1.15,2013-08-29 01:51:00,
2013-08-28 21:52:00,83.3,72.1,29.92,WNW,284,0.0,0.0,69,0.00,,,0.00,Wunderground v.1.15,2013-08-29 01:52:00,
2013-08-28 21:53:00,83.3,72.1,29.92,WNW,282,0.0,1.0,69,0.00,,,0.00,Wunderground v.1.15,2013-08-29 01:53:00,
2013-08-28 21:56:00,83.3,72.1,29.92,WNW,284,0.0,1.0,69,0.00,,,0.00,Wunderground v.1.15,2013-08-29 01:56:00,
2013-08-28 21:58:00,83.1,71.9,29.92,WNW,284,0.0,1.0,69,0.00,,,0.00,Wunderground v.1.15,2013-08-29 01:58:00,
2013-08-28 21:59:00,83.1,71.9,29.92,WNW,289,0.0,1.0,69,0.00,,,0.00,Wunderground v.1.15,2013-08-29 01:59:00,
2013-08-28 22:01:00,83.1,71.9,29.92,WNW,289,0.0,0.0,69,0.00,,,0.00,Wunderground v.1.15,2013-08-29 02:01:00,
2013-08-28 22:02:00,83.1,71.9,29.92,WNW,289,0.0,0.0,69,0.00,,,0.00,Wunderground v.1.15,2013-08-29 02:02:00,
2013-08-28 22:03:00,83.1,71.9,29.92,WNW,289,0.0,0.0,69,0.00,,,0.00,Wunderground v.1.15,2013-08-29 02:03:00,
2013-08-28 22:08:00,82.9,72.1,29.92,West,267,0.0,1.0,70,0.00,,,0.00,Wunderground v.1.15,2013-08-29 02:08:00,
2013-08-28 22:09:00,82.9,72.1,29.92,West,270,0.0,1.0,70,0.00,,,0.00,Wunderground v.1.15,2013-08-29 02:09:00,
2013-08-28 22:11:00,82.9,72.1,29.92,West,264,0.0,0.0,70,0.00,,,0.00,Wunderground v.1.15,2013-08-29 02:11:00,
2013-08-28 22:13:00,82.9,72.1,29.92,West,264,0.0,0.0,70,0.00,,,0.00,Wunderground v.1.15,2013-08-29 02:13:00,
2013-08-28 22:15:00,82.9,72.1,29.93,West,277,0.0,0.0,70,0.00,,,0.00,Wunderground v.1.15,2013-08-29 02:15:00,
2013-08-28 22:18:00,82.7,71.9,29.93,West,270,0.0,3.0,70,0.00,,,0.00,Wunderground v.1.15,2013-08-29 02:18:00,
2013-08-28 22:19:00,82.7,71.9,29.93,West,268,0.0,3.0,70,0.00,,,0.00,Wunderground v.1.15,2013-08-29 02:19:00,
2013-08-28 22:20:00,82.7,71.9,29.93,West,260,0.0,0.0,70,0.00,,,0.00,Wunderground v.1.15,2013-08-29 02:20:00,
2013-08-28 22:23:00,82.7,71.9,29.93,West,268,0.0,0.0,70,0.00,,,0.00,Wunderground v.1.15,2013-08-29 02:23:00,
2013-08-28 22:25:00,82.7,71.9,29.93,West,268,0.0,0.0,70,0.00,,,0.00,Wunderground v.1.15,2013-08-29 02:25:00,
2013-08-28 22:26:00,82.7,71.9,29.93,SW,230,0.0,1.0,70,0.00,,,0.00,Wunderground v.1.15,2013-08-29 02:26:00,
2013-08-28 22:29:00,82.7,71.9,29.93,SW,233,0.0,1.0,70,0.00,,,0.00,Wunderground v.1.15,2013-08-29 02:29:00,
2013-08-28 22:30:00,82.7,71.9,29.93,WSW,254,0.0,0.0,70,0.00,,,0.00,Wunderground v.1.15,2013-08-29 02:30:00,
2013-08-28 22:35:00,82.7,71.9,29.93,West,278,0.0,0.0,70,0.00,,,0.00,Wunderground v.1.15,2013-08-29 02:35:00,
2013-08-28 22:37:00,82.7,71.9,29.93,West,277,0.0,0.0,70,0.00,,,0.00,Wunderground v.1.15,2013-08-29 02:37:00,
2013-08-28 22:38:00,82.7,71.9,29.93,West,277,0.0,0.0,70,0.00,,,0.00,Wunderground v.1.15,2013-08-29 02:38:00,
2013-08-28 22:39:00,82.7,71.9,29.93,West,277,0.0,0.0,70,0.00,,,0.00,Wunderground v.1.15,2013-08-29 02:39:00,
2013-08-28 22:42:00,82.7,72.3,29.93,West,281,0.0,1.0,71,0.00,,,0.00,Wunderground v.1.15,2013-08-29 02:42:00,
2013-08-28 22:43:00,82.7,72.3,29.93,West,281,0.0,1.0,71,0.00,,,0.00,Wunderground v.1.15,2013-08-29 02:43:00,
2013-08-28 22:47:00,82.5,72.1,29.94,WNW,282,0.0,1.0,71,0.00,,,0.00,Wunderground v.1.15,2013-08-29 02:47:00,
2013-08-28 22:48:00,82.5,72.1,29.94,WNW,282,0.0,1.0,71,0.00,,,0.00,Wunderground v.1.15,2013-08-29 02:48:00,
2013-08-28 22:52:00,82.5,72.1,29.94,WNW,282,0.0,0.0,71,0.00,,,0.00,Wunderground v.1.15,2013-08-29 02:52:00,
2013-08-28 22:54:00,82.5,72.1,29.94,WNW,282,0.0,0.0,71,0.00,,,0.00,Wunderground v.1.15,2013-08-29 02:54:00,
2013-08-28 22:55:00,82.5,72.1,29.94,WNW,282,0.0,0.0,71,0.00,,,0.00,Wunderground v.1.15,2013-08-29 02:55:00,
2013-08-28 22:57:00,82.5,72.1,29.94,WNW,282,0.0,0.0,71,0.00,,,0.00,Wunderground v.1.15,2013-08-29 02:57:00,
2013-08-28 22:59:00,82.5,72.1,29.94,WNW,284,0.0,0.0,71,0.00,,,0.00,Wunderground v.1.15,2013-08-29 02:59:00,
2013-08-28 23:01:00,82.5,72.1,29.94,WNW,284,0.0,0.0,71,0.00,,,0.00,Wunderground v.1.15,2013-08-29 03:01:00,
2013-08-28 23:03:00,82.5,72.1,29.94,WNW,284,0.0,0.0,71,0.00,,,0.00,Wunderground v.1.15,2013-08-29 03:03:00,
2013-08-28 23:04:00,82.5,72.1,29.94,WNW,284,0.0,0.0,71,0.00,,,0.00,Wunderground v.1.15,2013-08-29 03:04:00,
2013-08-28 23:05:00,82.5,72.1,29.94,WNW,282,0.0,0.0,71,0.00,,,0.00,Wunderground v.1.15,2013-08-29 03:05:00,
2013-08-28 23:07:00,82.5,72.1,29.94,WNW,282,0.0,0.0,71,0.00,,,0.00,Wunderground v.1.15,2013-08-29 03:07:00,
2013-08-28 23:09:00,82.5,72.1,29.94,WNW,282,0.0,0.0,71,0.00,,,0.00,Wunderground v.1.15,2013-08-29 03:09:00,
2013-08-28 23:10:00,82.3,72.0,29.94,WNW,282,0.0,0.0,71,0.00,,,0.00,Wunderground v.1.15,2013-08-29 03:10:00,
2013-08-28 23:11:00,82.3,72.0,29.94,WNW,282,0.0,0.0,71,0.00,,,0.00,Wunderground v.1.15,2013-08-29 03:11:00,
2013-08-28 23:12:00,82.3,72.0,29.94,WNW,282,0.0,0.0,71,0.00,,,0.00,Wunderground v.1.15,2013-08-29 03:12:00,
2013-08-28 23:14:00,82.3,72.0,29.94,WNW,282,0.0,0.0,71,0.00,,,0.00,Wunderground v.1.15,2013-08-29 03:14:00,
2013-08-28 23:16:00,82.3,72.0,29.94,WNW,282,0.0,0.0,71,0.00,,,0.00,Wunderground v.1.15,2013-08-29 03:16:00,
2013-08-28 23:17:00,82.3,72.0,29.94,WNW,282,0.0,0.0,71,0.00,,,0.00,Wunderground v.1.15,2013-08-29 03:17:00,
2013-08-28 23:18:00,82.3,72.0,29.94,WNW,282,0.0,0.0,71,0.00,,,0.00,Wunderground v.1.15,2013-08-29 03:18:00,
2013-08-28 23:19:00,82.3,72.0,29.94,WNW,282,0.0,0.0,71,0.00,,,0.00,Wunderground v.1.15,2013-08-29 03:19:00,
2013-08-28 23:22:00,82.3,72.0,29.94,WNW,282,0.0,0.0,71,0.00,,,0.00,Wunderground v.1.15,2013-08-29 03:22:00,
2013-08-28 23:23:00,82.3,72.0,29.94,WNW,282,0.0,0.0,71,0.00,,,0.00,Wunderground v.1.15,2013-08-29 03:23:00,
2013-08-28 23:24:00,82.1,71.8,29.94,West,267,0.0,1.0,71,0.00,,,0.00,Wunderground v.1.15,2013-08-29 03:24:00,
2013-08-28 23:29:00,82.1,71.8,29.94,West,267,0.0,1.0,71,0.00,,,0.00,Wunderground v.1.15,2013-08-29 03:29:00,
2013-08-28 23:31:00,82.1,71.8,29.93,West,264,0.0,0.0,71,0.00,,,0.00,Wunderground v.1.15,2013-08-29 03:31:00,
2013-08-28 23:34:00,81.9,71.6,29.93,West,264,0.0,0.0,71,0.00,,,0.00,Wunderground v.1.15,2013-08-29 03:34:00,
2013-08-28 23:35:00,81.9,72.0,29.93,WSW,251,0.0,2.0,72,0.00,,,0.00,Wunderground v.1.15,2013-08-29 03:35:00,
2013-08-28 23:36:00,81.9,72.0,29.93,WSW,251,0.0,2.0,72,0.00,,,0.00,Wunderground v.1.15,2013-08-29 03:36:00,
2013-08-28 23:40:00,81.7,71.8,29.93,WSW,244,0.0,0.0,72,0.00,,,0.00,Wunderground v.1.15,2013-08-29 03:40:00,
2013-08-28 23:42:00,81.7,71.4,29.93,SW,220,1.0,6.0,71,0.00,,,0.00,Wunderground v.1.15,2013-08-29 03:42:00,
2013-08-28 23:43:00,81.7,71.4,29.93,SW,224,1.0,6.0,71,0.00,,,0.00,Wunderground v.1.15,2013-08-29 03:43:00,
2013-08-28 23:44:00,81.7,71.4,29.93,WSW,237,1.0,6.0,71,0.00,,,0.00,Wunderground v.1.15,2013-08-29 03:44:00,
2013-08-28 23:46:00,81.7,71.4,29.93,SW,224,1.0,6.0,71,0.00,,,0.00,Wunderground v.1.15,2013-08-29 03:46:00,
2013-08-28 23:47:00,81.7,71.4,29.93,SW,227,1.0,6.0,71,0.00,,,0.00,Wunderground v.1.15,2013-08-29 03:47:00,
2013-08-28 23:50:00,81.7,71.4,29.93,SW,234,1.0,1.0,71,0.00,,,0.00,Wunderground v.1.15,2013-08-29 03:50:00,
2013-08-28 23:52:00,81.7,71.4,29.93,SW,230,1.0,3.0,71,0.00,,,0.00,Wunderground v.1.15,2013-08-29 03:52:00,
2013-08-28 23:53:00,81.7,71.8,29.93,West,270,1.0,3.0,72,0.00,,,0.00,Wunderground v.1.15,2013-08-29 03:53:00,
2013-08-28 23:56:00,81.7,71.8,29.93,WNW,299,1.0,3.0,72,0.00,,,0.00,Wunderground v.1.15,2013-08-29 03:56:00,
2013-08-28 23:58:00,81.6,71.7,29.93,WNW,299,1.0,3.0,72,0.00,,,0.00,Wunderground v.1.15,2013-08-29 03:58:00,